2016 Cux-Wetter.de -Die Nutzung der Wetterdaten nur mit ausdrcklicher Genehmigung
Wetterdaten: Montag, 28.05.2018
Datum Zeit Temp. A. Feuchte A. Luftdruck Regen Wind Richtung Richtung Sonnenschein Solar Taupunkt Windchill Windben
28.05.2018 00:00 16,8 C 88 % 1018,0 hPa 0,0 l/m 4,2 km/h (1 Bft) S-SO 162 0 min 0 W/m 14,8 C 16,8 C 11,3 km/h (2 Bft)
28.05.2018 00:03 16,8 C 88 % 1018,0 hPa 0,0 l/m 3,6 km/h (1 Bft) O 93 0 min 0 W/m 14,8 C 16,8 C 8,0 km/h (2 Bft)
28.05.2018 00:06 16,7 C 88 % 1018,1 hPa 0,0 l/m 3,0 km/h (1 Bft) N-NO 13 0 min 0 W/m 14,7 C 16,7 C 6,4 km/h (2 Bft)
28.05.2018 00:09 16,7 C 88 % 1018,1 hPa 0,0 l/m 2,9 km/h (1 Bft) S-SW 205 0 min 0 W/m 14,7 C 16,7 C 9,7 km/h (2 Bft)
28.05.2018 00:12 16,7 C 88 % 1018,1 hPa 0,0 l/m 2,5 km/h (1 Bft) O-NO 71 0 min 0 W/m 14,7 C 16,7 C 4,8 km/h (1 Bft)
28.05.2018 00:15 16,6 C 88 % 1018,1 hPa 0,0 l/m 3,3 km/h (1 Bft) O 99 0 min 0 W/m 14,6 C 16,6 C 11,3 km/h (2 Bft)
28.05.2018 00:18 16,6 C 89 % 1018,0 hPa 0,0 l/m 4,1 km/h (1 Bft) O-SO 107 0 min 0 W/m 14,8 C 16,6 C 12,9 km/h (3 Bft)
28.05.2018 00:21 16,6 C 89 % 1018,1 hPa 0,0 l/m 2,5 km/h (1 Bft) N-NW 338 0 min 0 W/m 14,8 C 16,6 C 6,4 km/h (2 Bft)
28.05.2018 00:24 16,6 C 89 % 1018,2 hPa 0,0 l/m 2,4 km/h (1 Bft) W 263 0 min 0 W/m 14,8 C 16,6 C 6,4 km/h (2 Bft)
28.05.2018 00:27 16,6 C 89 % 1018,2 hPa 0,0 l/m 4,1 km/h (1 Bft) NO 40 0 min 0 W/m 14,8 C 16,6 C 14,5 km/h (3 Bft)
28.05.2018 00:30 16,7 C 89 % 1018,3 hPa 0,0 l/m 2,9 km/h (1 Bft) O 97 0 min 0 W/m 14,9 C 16,7 C 9,7 km/h (2 Bft)
28.05.2018 00:33 16,7 C 89 % 1018,3 hPa 0,0 l/m 3,1 km/h (1 Bft) O-SO 119 0 min 0 W/m 14,9 C 16,7 C 6,4 km/h (2 Bft)
28.05.2018 00:36 16,8 C 89 % 1018,3 hPa 0,0 l/m 2,7 km/h (1 Bft) N-NO 19 0 min 0 W/m 15,0 C 16,8 C 6,4 km/h (2 Bft)
28.05.2018 00:39 16,8 C 90 % 1018,3 hPa 0,0 l/m 2,7 km/h (1 Bft) N 10 0 min 0 W/m 15,1 C 16,8 C 8,0 km/h (2 Bft)
28.05.2018 00:42 16,8 C 90 % 1018,3 hPa 0,0 l/m 2,9 km/h (1 Bft) O 83 0 min 0 W/m 15,1 C 16,8 C 8,0 km/h (2 Bft)
28.05.2018 00:45 16,7 C 90 % 1018,4 hPa 0,0 l/m 3,2 km/h (1 Bft) O-NO 63 0 min 0 W/m 15,0 C 16,7 C 11,3 km/h (2 Bft)
28.05.2018 00:48 16,7 C 90 % 1018,3 hPa 0,0 l/m 2,5 km/h (1 Bft) SO 132 0 min 0 W/m 15,0 C 16,7 C 11,3 km/h (2 Bft)
28.05.2018 00:51 16,7 C 90 % 1018,3 hPa 0,0 l/m 3,4 km/h (1 Bft) NO 41 0 min 0 W/m 15,0 C 16,7 C 8,0 km/h (2 Bft)
28.05.2018 00:54 16,6 C 90 % 1018,3 hPa 0,0 l/m 3,3 km/h (1 Bft) N 360 0 min 0 W/m 15,0 C 16,6 C 8,0 km/h (2 Bft)
28.05.2018 00:57 16,6 C 91 % 1018,3 hPa 0,0 l/m 2,7 km/h (1 Bft) O-NO 65 0 min 0 W/m 15,1 C 16,6 C 9,7 km/h (2 Bft)
28.05.2018 01:00 16,6 C 91 % 1018,2 hPa 0,0 l/m 3,3 km/h (1 Bft) O-NO 76 0 min 0 W/m 15,1 C 16,6 C 6,4 km/h (2 Bft)
28.05.2018 01:03 16,6 C 91 % 1018,3 hPa 0,0 l/m 3,9 km/h (1 Bft) O-NO 66 0 min 0 W/m 15,1 C 16,6 C 12,9 km/h (3 Bft)
28.05.2018 01:06 16,6 C 91 % 1018,2 hPa 0,0 l/m 3,4 km/h (1 Bft) O-NO 69 0 min 0 W/m 15,1 C 16,6 C 12,9 km/h (3 Bft)
28.05.2018 01:09 16,6 C 91 % 1018,3 hPa 0,0 l/m 3,5 km/h (1 Bft) SW 221 0 min 0 W/m 15,1 C 16,6 C 14,5 km/h (3 Bft)
28.05.2018 01:12 16,6 C 91 % 1018,2 hPa 0,0 l/m 4,0 km/h (1 Bft) N-NW 344 0 min 0 W/m 15,1 C 16,6 C 16,1 km/h (3 Bft)
28.05.2018 01:15 16,6 C 91 % 1018,3 hPa 0,0 l/m 4,5 km/h (1 Bft) SO 133 0 min 0 W/m 15,1 C 16,6 C 16,1 km/h (3 Bft)
28.05.2018 01:18 16,7 C 91 % 1018,3 hPa 0,0 l/m 5,0 km/h (1 Bft) O-SO 109 0 min 0 W/m 15,2 C 16,7 C 16,1 km/h (3 Bft)
28.05.2018 01:21 16,7 C 91 % 1018,3 hPa 0,0 l/m 3,9 km/h (1 Bft) O 100 0 min 0 W/m 15,2 C 16,7 C 9,7 km/h (2 Bft)
28.05.2018 01:24 16,7 C 91 % 1018,4 hPa 0,0 l/m 5,8 km/h (2 Bft) O-NO 58 0 min 0 W/m 15,2 C 16,7 C 16,1 km/h (3 Bft)
28.05.2018 01:27 16,7 C 91 % 1018,2 hPa 0,0 l/m 5,1 km/h (1 Bft) N-NW 342 0 min 0 W/m 15,2 C 16,7 C 12,9 km/h (3 Bft)
28.05.2018 01:30 16,7 C 91 % 1018,2 hPa 0,0 l/m 5,4 km/h (2 Bft) O 91 0 min 0 W/m 15,2 C 16,7 C 12,9 km/h (3 Bft)
28.05.2018 01:33 16,7 C 91 % 1018,1 hPa 0,0 l/m 6,3 km/h (2 Bft) S-SO 150 0 min 0 W/m 15,2 C 16,7 C 14,5 km/h (3 Bft)
28.05.2018 01:36 16,7 C 91 % 1018,1 hPa 0,0 l/m 7,4 km/h (2 Bft) O-NO 76 0 min 0 W/m 15,2 C 16,2 C 14,5 km/h (3 Bft)
28.05.2018 01:39 16,7 C 91 % 1018,1 hPa 0,0 l/m 5,5 km/h (2 Bft) O 96 0 min 0 W/m 15,2 C 16,7 C 11,3 km/h (2 Bft)
28.05.2018 01:42 16,7 C 91 % 1018,0 hPa 0,0 l/m 5,8 km/h (2 Bft) O 92 0 min 0 W/m 15,2 C 16,7 C 14,5 km/h (3 Bft)
28.05.2018 01:45 16,7 C 91 % 1018,0 hPa 0,0 l/m 5,0 km/h (1 Bft) O 96 0 min 0 W/m 15,2 C 16,7 C 11,3 km/h (2 Bft)
28.05.2018 01:48 16,7 C 91 % 1017,9 hPa 0,0 l/m 3,8 km/h (1 Bft) O-NO 74 0 min 0 W/m 15,2 C 16,7 C 12,9 km/h (3 Bft)
28.05.2018 01:51 16,7 C 91 % 1017,8 hPa 0,0 l/m 4,9 km/h (1 Bft) O-NO 69 0 min 0 W/m 15,2 C 16,7 C 16,1 km/h (3 Bft)
28.05.2018 01:54 16,7 C 91 % 1017,6 hPa 0,0 l/m 3,6 km/h (1 Bft) O 90 0 min 0 W/m 15,2 C 16,7 C 9,7 km/h (2 Bft)
28.05.2018 01:57 16,7 C 91 % 1017,6 hPa 0,0 l/m 3,7 km/h (1 Bft) O-SO 121 0 min 0 W/m 15,2 C 16,7 C 14,5 km/h (3 Bft)
28.05.2018 02:00 16,7 C 91 % 1017,6 hPa 0,0 l/m 3,5 km/h (1 Bft) S-SO 153 0 min 0 W/m 15,2 C 16,7 C 11,3 km/h (2 Bft)
28.05.2018 02:03 16,7 C 91 % 1017,4 hPa 0,0 l/m 6,3 km/h (2 Bft) S-SO 150 0 min 0 W/m 15,2 C 16,7 C 14,5 km/h (3 Bft)
28.05.2018 02:06 16,7 C 90 % 1017,3 hPa 0,0 l/m 9,5 km/h (2 Bft) O-SO 111 0 min 0 W/m 15,0 C 15,2 C 20,9 km/h (4 Bft)
28.05.2018 02:09 16,8 C 88 % 1017,3 hPa 0,0 l/m 6,9 km/h (2 Bft) O-SO 117 0 min 0 W/m 14,8 C 16,5 C 16,1 km/h (3 Bft)
28.05.2018 02:12 17,1 C 87 % 1017,3 hPa 0,0 l/m 7,3 km/h (2 Bft) SO 142 0 min 0 W/m 14,9 C 16,6 C 14,5 km/h (3 Bft)
28.05.2018 02:15 17,6 C 83 % 1017,3 hPa 0,0 l/m 8,1 km/h (2 Bft) SO 128 0 min 0 W/m 14,7 C 16,8 C 19,3 km/h (3 Bft)
28.05.2018 02:18 18,0 C 80 % 1017,3 hPa 0,0 l/m 8,0 km/h (2 Bft) SO 144 0 min 0 W/m 14,5 C 17,3 C 24,1 km/h (4 Bft)
28.05.2018 02:21 18,3 C 79 % 1017,5 hPa 0,0 l/m 10,7 km/h (2 Bft) O-NO 65 0 min 0 W/m 14,6 C 16,5 C 27,4 km/h (5 Bft)
28.05.2018 02:24 18,7 C 77 % 1017,5 hPa 0,0 l/m 7,3 km/h (2 Bft) SO 136 0 min 0 W/m 14,6 C 18,3 C 20,9 km/h (4 Bft)
28.05.2018 02:27 18,8 C 76 % 1017,5 hPa 0,0 l/m 5,0 km/h (1 Bft) O-SO 103 0 min 0 W/m 14,5 C 18,8 C 12,9 km/h (3 Bft)
28.05.2018 02:30 18,9 C 76 % 1017,5 hPa 0,0 l/m 5,0 km/h (1 Bft) O-NO 66 0 min 0 W/m 14,6 C 18,9 C 16,1 km/h (3 Bft)
28.05.2018 02:33 18,9 C 76 % 1017,5 hPa 0,0 l/m 6,3 km/h (2 Bft) S-SO 148 0 min 0 W/m 14,6 C 18,9 C 16,1 km/h (3 Bft)
28.05.2018 02:36 19,0 C 76 % 1017,6 hPa 0,0 l/m 6,1 km/h (2 Bft) NO 55 0 min 0 W/m 14,7 C 19,0 C 14,5 km/h (3 Bft)
28.05.2018 02:39 19,1 C 76 % 1017,7 hPa 0,0 l/m 6,9 km/h (2 Bft) O 100 0 min 0 W/m 14,8 C 18,9 C 16,1 km/h (3 Bft)
28.05.2018 02:42 19,2 C 75 % 1017,7 hPa 0,0 l/m 6,3 km/h (2 Bft) O-SO 106 0 min 0 W/m 14,7 C 19,2 C 16,1 km/h (3 Bft)
28.05.2018 02:45 19,1 C 75 % 1017,8 hPa 0,0 l/m 6,2 km/h (2 Bft) SO 144 0 min 0 W/m 14,6 C 19,1 C 14,5 km/h (3 Bft)
28.05.2018 02:48 19,2 C 74 % 1017,8 hPa 0,0 l/m 7,2 km/h (2 Bft) O 83 0 min 0 W/m 14,4 C 18,9 C 22,5 km/h (4 Bft)
28.05.2018 02:51 19,2 C 74 % 1017,9 hPa 0,0 l/m 5,0 km/h (1 Bft) O-SO 111 0 min 0 W/m 14,4 C 19,2 C 19,3 km/h (3 Bft)
28.05.2018 02:54 19,2 C 74 % 1017,8 hPa 0,0 l/m 5,4 km/h (2 Bft) NO 39 0 min 0 W/m 14,4 C 19,2 C 17,7 km/h (3 Bft)
28.05.2018 02:57 19,2 C 74 % 1017,8 hPa 0,0 l/m 5,6 km/h (2 Bft) N-NO 33 0 min 0 W/m 14,4 C 19,2 C 14,5 km/h (3 Bft)
28.05.2018 03:00 19,1 C 74 % 1017,8 hPa 0,0 l/m 6,0 km/h (2 Bft) SO 136 0 min 0 W/m 14,4 C 19,1 C 12,9 km/h (3 Bft)
28.05.2018 03:03 19,0 C 75 % 1017,9 hPa 0,0 l/m 6,6 km/h (2 Bft) S-SO 157 0 min 0 W/m 14,5 C 18,9 C 12,9 km/h (3 Bft)
28.05.2018 03:06 18,9 C 75 % 1017,8 hPa 0,0 l/m 6,7 km/h (2 Bft) SO 138 0 min 0 W/m 14,4 C 18,8 C 16,1 km/h (3 Bft)
28.05.2018 03:09 18,9 C 74 % 1017,9 hPa 0,0 l/m 5,9 km/h (2 Bft) O 92 0 min 0 W/m 14,2 C 18,9 C 14,5 km/h (3 Bft)
28.05.2018 03:12 18,9 C 74 % 1017,9 hPa 0,0 l/m 6,1 km/h (2 Bft) O 84 0 min 0 W/m 14,2 C 18,9 C 11,3 km/h (2 Bft)
28.05.2018 03:15 18,8 C 74 % 1017,9 hPa 0,0 l/m 3,9 km/h (1 Bft) NO 42 0 min 0 W/m 14,1 C 18,8 C 9,7 km/h (2 Bft)
28.05.2018 03:18 18,8 C 74 % 1017,9 hPa 0,0 l/m 4,2 km/h (1 Bft) S-SW 195 0 min 0 W/m 14,1 C 18,8 C 14,5 km/h (3 Bft)
28.05.2018 03:21 18,7 C 74 % 1017,9 hPa 0,0 l/m 4,9 km/h (1 Bft) SO 141 0 min 0 W/m 14,0 C 18,7 C 14,5 km/h (3 Bft)
28.05.2018 03:24 18,7 C 75 % 1017,9 hPa 0,0 l/m 5,2 km/h (1 Bft) O 90 0 min 0 W/m 14,2 C 18,7 C 12,9 km/h (3 Bft)
28.05.2018 03:27 18,6 C 75 % 1017,9 hPa 0,0 l/m 3,3 km/h (1 Bft) O-SO 111 0 min 0 W/m 14,1 C 18,6 C 9,7 km/h (2 Bft)
28.05.2018 03:30 18,6 C 75 % 1018,0 hPa 0,0 l/m 4,6 km/h (1 Bft) O-SO 112 0 min 0 W/m 14,1 C 18,6 C 11,3 km/h (2 Bft)
28.05.2018 03:33 18,5 C 75 % 1018,0 hPa 0,0 l/m 5,7 km/h (2 Bft) O 98 0 min 0 W/m 14,0 C 18,5 C 14,5 km/h (3 Bft)
28.05.2018 03:36 18,4 C 76 % 1018,0 hPa 0,0 l/m 3,8 km/h (1 Bft) SW 234 0 min 0 W/m 14,1 C 18,4 C 11,3 km/h (2 Bft)
28.05.2018 03:39 18,3 C 76 % 1018,0 hPa 0,0 l/m 2,0 km/h (1 Bft) O-SO 121 0 min 0 W/m 14,0 C 18,3 C 4,8 km/h (1 Bft)
28.05.2018 03:42 18,3 C 77 % 1018,0 hPa 0,0 l/m 4,5 km/h (1 Bft) O 81 0 min 0 W/m 14,2 C 18,3 C 9,7 km/h (2 Bft)
28.05.2018 03:45 18,4 C 77 % 1018,0 hPa 0,0 l/m 4,5 km/h (1 Bft) O-SO 103 0 min 0 W/m 14,3 C 18,4 C 12,9 km/h (3 Bft)
28.05.2018 03:48 18,4 C 77 % 1017,9 hPa 0,0 l/m 5,8 km/h (2 Bft) O 89 0 min 0 W/m 14,3 C 18,4 C 16,1 km/h (3 Bft)
28.05.2018 03:51 18,4 C 77 % 1017,9 hPa 0,0 l/m 5,0 km/h (1 Bft) O-NO 74 0 min 0 W/m 14,3 C 18,4 C 12,9 km/h (3 Bft)
28.05.2018 03:54 18,4 C 77 % 1017,9 hPa 0,0 l/m 4,1 km/h (1 Bft) NO 53 0 min 0 W/m 14,3 C 18,4 C 14,5 km/h (3 Bft)
28.05.2018 03:57 18,4 C 77 % 1017,9 hPa 0,0 l/m 6,9 km/h (2 Bft) O-NO 67 0 min 0 W/m 14,3 C 18,2 C 14,5 km/h (3 Bft)
28.05.2018 04:00 18,4 C 77 % 1017,9 hPa 0,0 l/m 4,2 km/h (1 Bft) O-SO 116 0 min 0 W/m 14,3 C 18,4 C 14,5 km/h (3 Bft)
28.05.2018 04:03 18,5 C 77 % 1017,9 hPa 0,0 l/m 4,6 km/h (1 Bft) S-SO 157 0 min 0 W/m 14,4 C 18,5 C 12,9 km/h (3 Bft)
28.05.2018 04:06 18,5 C 77 % 1017,8 hPa 0,0 l/m 4,0 km/h (1 Bft) O 80 0 min 0 W/m 14,4 C 18,5 C 9,7 km/h (2 Bft)
28.05.2018 04:09 18,6 C 77 % 1017,8 hPa 0,0 l/m 4,4 km/h (1 Bft) O-NO 68 0 min 0 W/m 14,5 C 18,6 C 9,7 km/h (2 Bft)
28.05.2018 04:12 18,6 C 76 % 1017,8 hPa 0,0 l/m 5,3 km/h (1 Bft) O-NO 71 0 min 0 W/m 14,3 C 18,6 C 12,9 km/h (3 Bft)
28.05.2018 04:15 18,6 C 77 % 1017,8 hPa 0,0 l/m 5,0 km/h (1 Bft) O-SO 117 0 min 0 W/m 14,5 C 18,6 C 11,3 km/h (2 Bft)
28.05.2018 04:18 18,6 C 77 % 1017,8 hPa 0,0 l/m 3,9 km/h (1 Bft) S-SO 165 0 min 0 W/m 14,5 C 18,6 C 8,0 km/h (2 Bft)
28.05.2018 04:21 18,5 C 77 % 1017,9 hPa 0,0 l/m 5,4 km/h (2 Bft) O-NO 75 0 min 0 W/m 14,4 C 18,5 C 11,3 km/h (2 Bft)
28.05.2018 04:24 18,4 C 77 % 1017,9 hPa 0,0 l/m 4,3 km/h (1 Bft) N 5 0 min 0 W/m 14,3 C 18,4 C 12,9 km/h (3 Bft)
28.05.2018 04:27 18,4 C 77 % 1017,9 hPa 0,0 l/m 4,0 km/h (1 Bft) S-SW 198 0 min 0 W/m 14,3 C 18,4 C 11,3 km/h (2 Bft)
28.05.2018 04:30 18,3 C 77 % 1017,9 hPa 0,0 l/m 5,0 km/h (1 Bft) N-NO 25 0 min 0 W/m 14,2 C 18,3 C 16,1 km/h (3 Bft)
28.05.2018 04:33 18,3 C 77 % 1018,0 hPa 0,0 l/m 3,4 km/h (1 Bft) NO 34 0 min 0 W/m 14,2 C 18,3 C 8,0 km/h (2 Bft)
28.05.2018 04:36 18,2 C 77 % 1018,0 hPa 0,0 l/m 6,0 km/h (2 Bft) NO 55 0 min 0 W/m 14,1 C 18,2 C 14,5 km/h (3 Bft)
28.05.2018 04:39 18,1 C 77 % 1018,0 hPa 0,0 l/m 2,9 km/h (1 Bft) O-SO 122 0 min 0 W/m 14,0 C 18,1 C 6,4 km/h (2 Bft)
28.05.2018 04:42 18,1 C 76 % 1018,1 hPa 0,0 l/m 4,5 km/h (1 Bft) NO 49 0 min 0 W/m 13,8 C 18,1 C 11,3 km/h (2 Bft)
28.05.2018 04:45 18,0 C 77 % 1018,1 hPa 0,0 l/m 5,0 km/h (1 Bft) NO 51 0 min 0 W/m 13,9 C 18,0 C 11,3 km/h (2 Bft)
28.05.2018 04:48 17,9 C 77 % 1018,2 hPa 0,0 l/m 3,1 km/h (1 Bft) O-SO 112 0 min 0 W/m 13,8 C 17,9 C 6,4 km/h (2 Bft)
28.05.2018 04:51 17,8 C 78 % 1018,2 hPa 0,0 l/m 3,1 km/h (1 Bft) N-NO 29 0 min 0 W/m 13,9 C 17,8 C 11,3 km/h (2 Bft)
28.05.2018 04:54 17,6 C 78 % 1018,1 hPa 0,0 l/m 3,7 km/h (1 Bft) N-NW 333 0 min 0 W/m 13,7 C 17,6 C 12,9 km/h (3 Bft)
28.05.2018 04:57 17,6 C 79 % 1018,1 hPa 0,0 l/m 3,6 km/h (1 Bft) SO 135 0 min 0 W/m 13,9 C 17,6 C 8,0 km/h (2 Bft)
28.05.2018 05:00 17,5 C 79 % 1018,1 hPa 0,0 l/m 3,4 km/h (1 Bft) N-NO 32 0 min 0 W/m 13,8 C 17,5 C 9,7 km/h (2 Bft)
28.05.2018 05:03 17,4 C 80 % 1018,1 hPa 0,0 l/m 2,3 km/h (1 Bft) NO 51 0 min 0 W/m 13,9 C 17,4 C 6,4 km/h (2 Bft)
28.05.2018 05:06 17,4 C 80 % 1018,1 hPa 0,0 l/m 3,3 km/h (1 Bft) O-NO 59 0 min 0 W/m 13,9 C 17,4 C 12,9 km/h (3 Bft)
28.05.2018 05:09 17,3 C 81 % 1018,2 hPa 0,0 l/m 2,3 km/h (1 Bft) O-NO 58 0 min 0 W/m 14,0 C 17,3 C 8,0 km/h (2 Bft)
28.05.2018 05:12 17,2 C 81 % 1018,2 hPa 0,0 l/m 3,6 km/h (1 Bft) N-NO 25 0 min 0 W/m 13,9 C 17,2 C 11,3 km/h (2 Bft)
28.05.2018 05:15 17,1 C 82 % 1018,2 hPa 0,0 l/m 5,2 km/h (1 Bft) O-NO 68 0 min 0 W/m 14,0 C 17,1 C 9,7 km/h (2 Bft)
28.05.2018 05:18 17,0 C 82 % 1018,2 hPa 0,0 l/m 3,6 km/h (1 Bft) O-NO 59 0 min 0 W/m 13,9 C 17,0 C 8,0 km/h (2 Bft)
28.05.2018 05:21 17,0 C 82 % 1018,3 hPa 0,0 l/m 5,3 km/h (1 Bft) NO 55 0 min 0 W/m 13,9 C 17,0 C 12,9 km/h (3 Bft)
28.05.2018 05:24 17,1 C 82 % 1018,3 hPa 0,0 l/m 5,0 km/h (1 Bft) SO 131 0 min 5 W/m 14,0 C 17,1 C 17,7 km/h (3 Bft)
28.05.2018 05:27 17,1 C 82 % 1018,3 hPa 0,0 l/m 4,1 km/h (1 Bft) NO 51 0 min 5 W/m 14,0 C 17,1 C 14,5 km/h (3 Bft)
28.05.2018 05:30 17,0 C 83 % 1018,2 hPa 0,0 l/m 4,9 km/h (1 Bft) SO 136 0 min 7 W/m 14,1 C 17,0 C 11,3 km/h (2 Bft)
28.05.2018 05:33 17,0 C 83 % 1018,2 hPa 0,0 l/m 3,2 km/h (1 Bft) O-SO 117 0 min 9 W/m 14,1 C 17,0 C 11,3 km/h (2 Bft)
28.05.2018 05:36 17,0 C 84 % 1018,3 hPa 0,0 l/m 4,0 km/h (1 Bft) NO 52 0 min 11 W/m 14,3 C 17,0 C 9,7 km/h (2 Bft)
28.05.2018 05:39 17,0 C 84 % 1018,3 hPa 0,0 l/m 3,4 km/h (1 Bft) O-NO 59 0 min 12 W/m 14,3 C 17,0 C 9,7 km/h (2 Bft)
28.05.2018 05:42 17,0 C 84 % 1018,3 hPa 0,0 l/m 3,7 km/h (1 Bft) O 97 0 min 14 W/m 14,3 C 17,0 C 11,3 km/h (2 Bft)
28.05.2018 05:45 16,9 C 85 % 1018,3 hPa 0,0 l/m 3,2 km/h (1 Bft) O 96 0 min 16 W/m 14,4 C 16,9 C 8,0 km/h (2 Bft)
28.05.2018 05:48 16,8 C 85 % 1018,3 hPa 0,0 l/m 3,1 km/h (1 Bft) NO 55 0 min 16 W/m 14,3 C 16,8 C 6,4 km/h (2 Bft)
28.05.2018 05:51 16,8 C 86 % 1018,3 hPa 0,0 l/m 2,9 km/h (1 Bft) N-NO 15 0 min 18 W/m 14,4 C 16,8 C 6,4 km/h (2 Bft)
28.05.2018 05:54 16,8 C 86 % 1018,4 hPa 0,0 l/m 3,1 km/h (1 Bft) S-SO 164 0 min 18 W/m 14,4 C 16,8 C 9,7 km/h (2 Bft)
28.05.2018 05:57 16,8 C 87 % 1018,4 hPa 0,0 l/m 1,7 km/h (1 Bft) O-NO 65 0 min 19 W/m 14,6 C 16,8 C 6,4 km/h (2 Bft)
28.05.2018 06:00 16,8 C 87 % 1018,4 hPa 0,0 l/m 3,8 km/h (1 Bft) O-SO 103 0 min 19 W/m 14,6 C 16,8 C 11,3 km/h (2 Bft)
28.05.2018 06:03 16,8 C 87 % 1018,4 hPa 0,0 l/m 2,0 km/h (1 Bft) O-SO 114 0 min 21 W/m 14,6 C 16,8 C 6,4 km/h (2 Bft)
28.05.2018 06:06 16,8 C 88 % 1018,4 hPa 0,0 l/m 3,4 km/h (1 Bft) O-NO 71 0 min 21 W/m 14,8 C 16,8 C 6,4 km/h (2 Bft)
28.05.2018 06:09 16,8 C 88 % 1018,4 hPa 0,0 l/m 4,5 km/h (1 Bft) O 84 0 min 21 W/m 14,8 C 16,8 C 9,7 km/h (2 Bft)
28.05.2018 06:12 16,8 C 88 % 1018,4 hPa 0,0 l/m 2,7 km/h (1 Bft) O 101 0 min 21 W/m 14,8 C 16,8 C 11,3 km/h (2 Bft)
28.05.2018 06:15 16,8 C 88 % 1018,3 hPa 0,0 l/m 4,2 km/h (1 Bft) N-NO 22 0 min 21 W/m 14,8 C 16,8 C 9,7 km/h (2 Bft)
28.05.2018 06:18 16,9 C 88 % 1018,4 hPa 0,0 l/m 3,9 km/h (1 Bft) NO 37 0 min 23 W/m 14,9 C 16,9 C 11,3 km/h (2 Bft)
28.05.2018 06:21 16,9 C 88 % 1018,3 hPa 0,0 l/m 7,0 km/h (2 Bft) NO 44 0 min 30 W/m 14,9 C 16,6 C 16,1 km/h (3 Bft)
28.05.2018 06:24 16,9 C 88 % 1018,4 hPa 0,0 l/m 3,6 km/h (1 Bft) N-NW 339 0 min 39 W/m 14,9 C 16,9 C 11,3 km/h (2 Bft)
28.05.2018 06:27 16,9 C 88 % 1018,3 hPa 0,0 l/m 4,0 km/h (1 Bft) O-SO 107 0 min 46 W/m 14,9 C 16,9 C 12,9 km/h (3 Bft)
28.05.2018 06:30 16,9 C 88 % 1018,3 hPa 0,0 l/m 4,4 km/h (1 Bft) O 79 0 min 47 W/m 14,9 C 16,9 C 14,5 km/h (3 Bft)
28.05.2018 06:33 17,0 C 88 % 1018,4 hPa 0,0 l/m 6,1 km/h (2 Bft) O-SO 119 0 min 47 W/m 15,0 C 17,0 C 14,5 km/h (3 Bft)
28.05.2018 06:36 17,1 C 88 % 1018,4 hPa 0,0 l/m 4,7 km/h (1 Bft) O 94 0 min 47 W/m 15,1 C 17,1 C 12,9 km/h (3 Bft)
28.05.2018 06:39 17,1 C 88 % 1018,5 hPa 0,0 l/m 3,8 km/h (1 Bft) W-NW 292 0 min 47 W/m 15,1 C 17,1 C 9,7 km/h (2 Bft)
28.05.2018 06:42 17,2 C 88 % 1018,5 hPa 0,0 l/m 3,5 km/h (1 Bft) O 96 0 min 37 W/m 15,2 C 17,2 C 9,7 km/h (2 Bft)
28.05.2018 06:45 17,2 C 88 % 1018,5 hPa 0,0 l/m 4,2 km/h (1 Bft) N-NO 18 0 min 28 W/m 15,2 C 17,2 C 17,7 km/h (3 Bft)
28.05.2018 06:48 17,2 C 88 % 1018,5 hPa 0,0 l/m 3,8 km/h (1 Bft) S-SO 157 0 min 25 W/m 15,2 C 17,2 C 8,0 km/h (2 Bft)
28.05.2018 06:51 17,1 C 88 % 1018,5 hPa 0,0 l/m 5,2 km/h (1 Bft) O-NO 73 0 min 26 W/m 15,1 C 17,1 C 12,9 km/h (3 Bft)
28.05.2018 06:54 17,1 C 88 % 1018,5 hPa 0,0 l/m 4,4 km/h (1 Bft) O-NO 63 0 min 28 W/m 15,1 C 17,1 C 14,5 km/h (3 Bft)
28.05.2018 06:57 17,1 C 88 % 1018,5 hPa 0,0 l/m 3,4 km/h (1 Bft) N-NW 331 0 min 28 W/m 15,1 C 17,1 C 6,4 km/h (2 Bft)
28.05.2018 07:00 17,1 C 88 % 1018,5 hPa 0,0 l/m 4,6 km/h (1 Bft) O-SO 116 0 min 32 W/m 15,1 C 17,1 C 11,3 km/h (2 Bft)
28.05.2018 07:03 17,1 C 88 % 1018,6 hPa 0,0 l/m 3,6 km/h (1 Bft) O-SO 109 0 min 44 W/m 15,1 C 17,1 C 8,0 km/h (2 Bft)
28.05.2018 07:06 17,1 C 88 % 1018,7 hPa 0,0 l/m 3,2 km/h (1 Bft) O 80 0 min 49 W/m 15,1 C 17,1 C 6,4 km/h (2 Bft)
28.05.2018 07:09 17,1 C 89 % 1018,7 hPa 0,0 l/m 4,6 km/h (1 Bft) SO 125 0 min 49 W/m 15,3 C 17,1 C 12,9 km/h (3 Bft)
28.05.2018 07:12 17,1 C 89 % 1018,7 hPa 0,0 l/m 3,2 km/h (1 Bft) NO 51 0 min 49 W/m 15,3 C 17,1 C 6,4 km/h (2 Bft)
28.05.2018 07:15 17,1 C 89 % 1018,6 hPa 0,0 l/m 4,1 km/h (1 Bft) O-NO 76 0 min 47 W/m 15,3 C 17,1 C 12,9 km/h (3 Bft)
28.05.2018 07:18 17,1 C 89 % 1018,6 hPa 0,0 l/m 2,5 km/h (1 Bft) O 86 0 min 49 W/m 15,3 C 17,1 C 4,8 km/h (1 Bft)
28.05.2018 07:21 17,1 C 89 % 1018,6 hPa 0,0 l/m 5,9 km/h (2 Bft) SO 141 0 min 46 W/m 15,3 C 17,1 C 12,9 km/h (3 Bft)
28.05.2018 07:24 17,1 C 89 % 1018,6 hPa 0,0 l/m 4,9 km/h (1 Bft) S-SO 151 0 min 51 W/m 15,3 C 17,1 C 14,5 km/h (3 Bft)
28.05.2018 07:27 17,1 C 89 % 1018,5 hPa 0,0 l/m 4,0 km/h (1 Bft) O-NO 64 0 min 60 W/m 15,3 C 17,1 C 8,0 km/h (2 Bft)
28.05.2018 07:30 17,2 C 89 % 1018,6 hPa 0,0 l/m 3,0 km/h (1 Bft) N-NO 13 0 min 65 W/m 15,4 C 17,2 C 8,0 km/h (2 Bft)
28.05.2018 07:33 17,2 C 89 % 1018,5 hPa 0,0 l/m 7,0 km/h (2 Bft) O 86 0 min 70 W/m 15,4 C 16,9 C 16,1 km/h (3 Bft)
28.05.2018 07:36 17,2 C 89 % 1018,5 hPa 0,0 l/m 4,3 km/h (1 Bft) NO 49 0 min 77 W/m 15,4 C 17,2 C 14,5 km/h (3 Bft)
28.05.2018 07:39 17,3 C 89 % 1018,6 hPa 0,0 l/m 6,1 km/h (2 Bft) SO 143 0 min 77 W/m 15,5 C 17,3 C 11,3 km/h (2 Bft)
28.05.2018 07:42 17,3 C 89 % 1018,6 hPa 0,0 l/m 5,7 km/h (2 Bft) SO 131 0 min 83 W/m 15,5 C 17,3 C 19,3 km/h (3 Bft)
28.05.2018 07:45 17,4 C 89 % 1018,7 hPa 0,0 l/m 5,9 km/h (2 Bft) SO 129 0 min 91 W/m 15,6 C 17,4 C 12,9 km/h (3 Bft)
28.05.2018 07:48 17,4 C 88 % 1018,7 hPa 0,0 l/m 4,5 km/h (1 Bft) O-NO 76 0 min 104 W/m 15,4 C 17,4 C 9,7 km/h (2 Bft)
28.05.2018 07:51 17,5 C 88 % 1018,7 hPa 0,0 l/m 7,0 km/h (2 Bft) O 88 0 min 127 W/m 15,5 C 17,2 C 16,1 km/h (3 Bft)
28.05.2018 07:54 17,6 C 88 % 1018,7 hPa 0,0 l/m 6,4 km/h (2 Bft) O-SO 103 0 min 142 W/m 15,6 C 17,6 C 17,7 km/h (3 Bft)
28.05.2018 07:57 17,7 C 88 % 1018,8 hPa 0,0 l/m 7,0 km/h (2 Bft) SO 129 0 min 144 W/m 15,7 C 17,4 C 17,7 km/h (3 Bft)
28.05.2018 08:00 17,9 C 88 % 1018,8 hPa 0,0 l/m 3,3 km/h (1 Bft) S-SO 150 0 min 149 W/m 15,9 C 17,9 C 12,9 km/h (3 Bft)
28.05.2018 08:03 18,2 C 87 % 1018,9 hPa 0,0 l/m 3,6 km/h (1 Bft) O-SO 105 0 min 146 W/m 16,0 C 18,2 C 9,7 km/h (2 Bft)
28.05.2018 08:06 18,3 C 87 % 1018,9 hPa 0,0 l/m 5,5 km/h (2 Bft) S 177 0 min 141 W/m 16,1 C 18,3 C 17,7 km/h (3 Bft)
28.05.2018 08:09 18,3 C 86 % 1018,9 hPa 0,0 l/m 5,4 km/h (2 Bft) NO 36 0 min 134 W/m 15,9 C 18,3 C 16,1 km/h (3 Bft)
28.05.2018 08:12 18,4 C 85 % 1018,9 hPa 0,0 l/m 6,8 km/h (2 Bft) O-NO 70 0 min 146 W/m 15,8 C 18,2 C 16,1 km/h (3 Bft)
28.05.2018 08:15 18,4 C 85 % 1018,9 hPa 0,0 l/m 6,6 km/h (2 Bft) S-SO 158 0 min 128 W/m 15,8 C 18,3 C 14,5 km/h (3 Bft)
28.05.2018 08:18 18,4 C 85 % 1018,9 hPa 0,0 l/m 5,2 km/h (1 Bft) SO 129 0 min 111 W/m 15,8 C 18,4 C 19,3 km/h (3 Bft)
28.05.2018 08:21 18,3 C 85 % 1018,9 hPa 0,0 l/m 4,7 km/h (1 Bft) S-SW 206 0 min 149 W/m 15,7 C 18,3 C 14,5 km/h (3 Bft)
28.05.2018 08:24 18,3 C 85 % 1019,0 hPa 0,0 l/m 4,5 km/h (1 Bft) O-SO 111 3 min 311 W/m 15,7 C 18,3 C 12,9 km/h (3 Bft)
28.05.2018 08:27 18,3 C 86 % 1019,0 hPa 0,0 l/m 5,5 km/h (2 Bft) W-NW 294 3 min 313 W/m 15,9 C 18,3 C 16,1 km/h (3 Bft)
28.05.2018 08:30 18,4 C 85 % 1019,0 hPa 0,0 l/m 4,8 km/h (1 Bft) O-NO 63 3 min 334 W/m 15,8 C 18,4 C 17,7 km/h (3 Bft)
28.05.2018 08:33 18,6 C 85 % 1019,0 hPa 0,0 l/m 6,5 km/h (2 Bft) O-SO 110 3 min 343 W/m 16,0 C 18,6 C 14,5 km/h (3 Bft)
28.05.2018 08:36 18,8 C 85 % 1019,0 hPa 0,0 l/m 7,0 km/h (2 Bft) O-SO 107 3 min 353 W/m 16,2 C 18,5 C 12,9 km/h (3 Bft)
28.05.2018 08:39 19,0 C 84 % 1019,1 hPa 0,0 l/m 4,7 km/h (1 Bft) O-NO 67 3 min 362 W/m 16,2 C 19,0 C 14,5 km/h (3 Bft)
28.05.2018 08:42 19,2 C 83 % 1019,1 hPa 0,0 l/m 4,8 km/h (1 Bft) NO 37 3 min 369 W/m 16,2 C 19,2 C 11,3 km/h (2 Bft)
28.05.2018 08:45 19,3 C 83 % 1019,1 hPa 0,0 l/m 4,7 km/h (1 Bft) N 351 3 min 374 W/m 16,3 C 19,3 C 11,3 km/h (2 Bft)
28.05.2018 08:48 19,3 C 83 % 1019,0 hPa 0,0 l/m 4,7 km/h (1 Bft) O-SO 123 3 min 388 W/m 16,3 C 19,3 C 12,9 km/h (3 Bft)
28.05.2018 08:51 19,4 C 82 % 1019,1 hPa 0,0 l/m 5,5 km/h (2 Bft) O-NO 65 3 min 388 W/m 16,2 C 19,4 C 11,3 km/h (2 Bft)
28.05.2018 08:54 19,4 C 82 % 1019,1 hPa 0,0 l/m 3,2 km/h (1 Bft) N-NO 13 3 min 392 W/m 16,2 C 19,4 C 8,0 km/h (2 Bft)
28.05.2018 08:57 19,6 C 83 % 1019,1 hPa 0,0 l/m 3,2 km/h (1 Bft) O 90 3 min 399 W/m 16,6 C 19,6 C 8,0 km/h (2 Bft)
28.05.2018 09:00 19,6 C 82 % 1019,1 hPa 0,0 l/m 6,2 km/h (2 Bft) O 97 3 min 410 W/m 16,4 C 19,6 C 16,1 km/h (3 Bft)
28.05.2018 09:03 19,8 C 83 % 1019,0 hPa 0,0 l/m 4,0 km/h (1 Bft) O 90 3 min 413 W/m 16,8 C 19,8 C 11,3 km/h (2 Bft)
28.05.2018 09:06 19,8 C 81 % 1019,1 hPa 0,0 l/m 5,3 km/h (1 Bft) N-NO 20 3 min 424 W/m 16,4 C 19,8 C 16,1 km/h (3 Bft)
28.05.2018 09:09 19,8 C 81 % 1019,1 hPa 0,0 l/m 7,0 km/h (2 Bft) O 99 3 min 432 W/m 16,4 C 19,6 C 14,5 km/h (3 Bft)
28.05.2018 09:12 19,9 C 82 % 1019,0 hPa 0,0 l/m 7,2 km/h (2 Bft) O 84 3 min 438 W/m 16,7 C 19,6 C 16,1 km/h (3 Bft)
28.05.2018 09:15 19,9 C 81 % 1019,0 hPa 0,0 l/m 7,6 km/h (2 Bft) N-NO 23 3 min 443 W/m 16,5 C 19,4 C 20,9 km/h (4 Bft)
28.05.2018 09:18 19,9 C 82 % 1019,0 hPa 0,0 l/m 7,1 km/h (2 Bft) O 96 3 min 454 W/m 16,7 C 19,6 C 14,5 km/h (3 Bft)
28.05.2018 09:21 20,1 C 82 % 1019,0 hPa 0,0 l/m 5,4 km/h (2 Bft) O-SO 105 3 min 459 W/m 16,9 C 20,1 C 24,1 km/h (4 Bft)
28.05.2018 09:24 20,1 C 81 % 1018,9 hPa 0,0 l/m 6,3 km/h (2 Bft) O-NO 65 3 min 466 W/m 16,7 C 20,1 C 19,3 km/h (3 Bft)
28.05.2018 09:27 20,2 C 80 % 1019,0 hPa 0,0 l/m 5,5 km/h (2 Bft) O 100 3 min 473 W/m 16,6 C 20,2 C 12,9 km/h (3 Bft)
28.05.2018 09:30 20,2 C 81 % 1019,0 hPa 0,0 l/m 6,3 km/h (2 Bft) O 93 3 min 473 W/m 16,8 C 20,2 C 14,5 km/h (3 Bft)
28.05.2018 09:33 20,2 C 80 % 1019,0 hPa 0,0 l/m 5,4 km/h (2 Bft) NO 42 3 min 480 W/m 16,6 C 20,2 C 14,5 km/h (3 Bft)
28.05.2018 09:36 20,2 C 80 % 1019,0 hPa 0,0 l/m 4,8 km/h (1 Bft) O-NO 69 3 min 487 W/m 16,6 C 20,2 C 12,9 km/h (3 Bft)
28.05.2018 09:39 20,4 C 81 % 1019,1 hPa 0,0 l/m 4,8 km/h (1 Bft) S-SO 150 3 min 489 W/m 17,0 C 20,4 C 14,5 km/h (3 Bft)
28.05.2018 09:42 20,7 C 80 % 1019,0 hPa 0,0 l/m 5,6 km/h (2 Bft) O-NO 76 3 min 490 W/m 17,1 C 20,7 C 11,3 km/h (2 Bft)
28.05.2018 09:45 20,8 C 80 % 1019,0 hPa 0,0 l/m 3,6 km/h (1 Bft) S-SO 153 3 min 480 W/m 17,2 C 20,8 C 12,9 km/h (3 Bft)
28.05.2018 09:48 20,9 C 80 % 1019,0 hPa 0,0 l/m 4,7 km/h (1 Bft) O-NO 66 3 min 471 W/m 17,3 C 20,9 C 9,7 km/h (2 Bft)
28.05.2018 09:51 20,8 C 79 % 1018,9 hPa 0,0 l/m 7,2 km/h (2 Bft) S-SO 157 3 min 461 W/m 17,0 C 20,5 C 16,1 km/h (3 Bft)
28.05.2018 09:54 20,9 C 80 % 1018,9 hPa 0,0 l/m 4,4 km/h (1 Bft) N-NO 32 3 min 452 W/m 17,3 C 20,9 C 14,5 km/h (3 Bft)
28.05.2018 09:57 20,9 C 80 % 1018,9 hPa 0,0 l/m 5,0 km/h (1 Bft) N-NW 346 3 min 439 W/m 17,3 C 20,9 C 9,7 km/h (2 Bft)
28.05.2018 10:00 21,1 C 79 % 1018,9 hPa 0,0 l/m 4,6 km/h (1 Bft) O-SO 108 3 min 432 W/m 17,3 C 21,1 C 12,9 km/h (3 Bft)
28.05.2018 10:03 21,1 C 79 % 1018,9 hPa 0,0 l/m 5,4 km/h (2 Bft) O 84 3 min 427 W/m 17,3 C 21,1 C 11,3 km/h (2 Bft)
28.05.2018 10:06 21,3 C 77 % 1018,9 hPa 0,0 l/m 6,2 km/h (2 Bft) O-SO 118 3 min 427 W/m 17,1 C 21,3 C 14,5 km/h (3 Bft)
28.05.2018 10:09 21,4 C 78 % 1018,9 hPa 0,0 l/m 4,6 km/h (1 Bft) O-SO 118 3 min 436 W/m 17,4 C 21,4 C 12,9 km/h (3 Bft)
28.05.2018 10:12 21,5 C 76 % 1018,9 hPa 0,0 l/m 5,3 km/h (1 Bft) O 87 3 min 445 W/m 17,1 C 21,5 C 16,1 km/h (3 Bft)
28.05.2018 10:15 21,7 C 75 % 1018,8 hPa 0,0 l/m 4,7 km/h (1 Bft) O-NO 67 3 min 466 W/m 17,1 C 21,7 C 9,7 km/h (2 Bft)
28.05.2018 10:18 21,8 C 75 % 1018,9 hPa 0,0 l/m 3,0 km/h (1 Bft) NO 50 3 min 485 W/m 17,2 C 21,8 C 6,4 km/h (2 Bft)
28.05.2018 10:21 21,8 C 75 % 1018,8 hPa 0,0 l/m 3,6 km/h (1 Bft) O-NO 68 3 min 508 W/m 17,2 C 21,8 C 12,9 km/h (3 Bft)
28.05.2018 10:24 21,9 C 74 % 1018,8 hPa 0,0 l/m 4,7 km/h (1 Bft) NO 56 3 min 538 W/m 17,0 C 21,9 C 9,7 km/h (2 Bft)
28.05.2018 10:27 21,9 C 75 % 1018,9 hPa 0,0 l/m 4,0 km/h (1 Bft) N-NO 24 3 min 566 W/m 17,3 C 21,9 C 12,9 km/h (3 Bft)
28.05.2018 10:30 22,1 C 74 % 1018,9 hPa 0,0 l/m 5,6 km/h (2 Bft) SO 128 3 min 585 W/m 17,2 C 22,1 C 16,1 km/h (3 Bft)
28.05.2018 10:33 22,2 C 73 % 1018,9 hPa 0,0 l/m 4,8 km/h (1 Bft) SO 126 3 min 605 W/m 17,1 C 22,2 C 12,9 km/h (3 Bft)
28.05.2018 10:36 22,2 C 73 % 1018,8 hPa 0,0 l/m 4,9 km/h (1 Bft) N 11 3 min 613 W/m 17,1 C 22,2 C 12,9 km/h (3 Bft)
28.05.2018 10:39 22,2 C 73 % 1018,9 hPa 0,0 l/m 4,9 km/h (1 Bft) SO 134 3 min 619 W/m 17,1 C 22,2 C 12,9 km/h (3 Bft)
28.05.2018 10:42 22,2 C 75 % 1018,9 hPa 0,0 l/m 5,0 km/h (1 Bft) O-NO 72 3 min 626 W/m 17,5 C 22,2 C 14,5 km/h (3 Bft)
28.05.2018 10:45 22,3 C 75 % 1018,9 hPa 0,0 l/m 3,0 km/h (1 Bft) O-SO 114 3 min 631 W/m 17,6 C 22,3 C 6,4 km/h (2 Bft)
28.05.2018 10:48 22,4 C 74 % 1018,9 hPa 0,0 l/m 3,3 km/h (1 Bft) N 5 3 min 578 W/m 17,5 C 22,4 C 12,9 km/h (3 Bft)
28.05.2018 10:51 22,6 C 74 % 1018,9 hPa 0,0 l/m 4,9 km/h (1 Bft) SO 138 3 min 642 W/m 17,7 C 22,6 C 12,9 km/h (3 Bft)
28.05.2018 10:54 22,7 C 74 % 1018,9 hPa 0,0 l/m 3,7 km/h (1 Bft) NO 40 3 min 649 W/m 17,8 C 22,7 C 9,7 km/h (2 Bft)
28.05.2018 10:57 22,7 C 75 % 1018,9 hPa 0,0 l/m 4,2 km/h (1 Bft) NO 55 3 min 654 W/m 18,0 C 22,7 C 9,7 km/h (2 Bft)
28.05.2018 11:00 22,7 C 73 % 1018,9 hPa 0,0 l/m 5,0 km/h (1 Bft) N-NW 348 3 min 659 W/m 17,6 C 22,7 C 14,5 km/h (3 Bft)
28.05.2018 11:03 22,7 C 73 % 1018,9 hPa 0,0 l/m 5,5 km/h (2 Bft) O-SO 115 3 min 666 W/m 17,6 C 22,7 C 9,7 km/h (2 Bft)
28.05.2018 11:06 22,6 C 73 % 1018,9 hPa 0,0 l/m 4,6 km/h (1 Bft) O-SO 115 3 min 671 W/m 17,5 C 22,6 C 11,3 km/h (2 Bft)
28.05.2018 11:09 22,6 C 74 % 1018,8 hPa 0,0 l/m 5,0 km/h (1 Bft) O-NO 72 3 min 679 W/m 17,7 C 22,6 C 12,9 km/h (3 Bft)
28.05.2018 11:12 23,0 C 73 % 1018,8 hPa 0,0 l/m 4,5 km/h (1 Bft) O-NO 62 3 min 682 W/m 17,9 C 23,0 C 14,5 km/h (3 Bft)
28.05.2018 11:15 23,1 C 73 % 1018,9 hPa 0,0 l/m 5,3 km/h (1 Bft) NO 37 3 min 686 W/m 18,0 C 23,1 C 11,3 km/h (2 Bft)
28.05.2018 11:18 23,1 C 73 % 1018,8 hPa 0,0 l/m 5,2 km/h (1 Bft) SO 134 3 min 693 W/m 18,0 C 23,1 C 12,9 km/h (3 Bft)
28.05.2018 11:21 23,2 C 72 % 1018,9 hPa 0,0 l/m 5,7 km/h (2 Bft) N-NO 19 3 min 694 W/m 17,9 C 23,2 C 12,9 km/h (3 Bft)
28.05.2018 11:24 23,2 C 71 % 1018,8 hPa 0,0 l/m 5,7 km/h (2 Bft) O-NO 62 3 min 698 W/m 17,6 C 23,2 C 12,9 km/h (3 Bft)
28.05.2018 11:27 23,3 C 72 % 1018,8 hPa 0,0 l/m 5,2 km/h (1 Bft) O-NO 77 3 min 707 W/m 18,0 C 23,3 C 9,7 km/h (2 Bft)
28.05.2018 11:30 23,6 C 71 % 1018,8 hPa 0,0 l/m 4,8 km/h (1 Bft) O-NO 75 3 min 707 W/m 18,0 C 23,6 C 9,7 km/h (2 Bft)
28.05.2018 11:33 23,7 C 70 % 1018,8 hPa 0,0 l/m 6,0 km/h (2 Bft) NO 38 3 min 714 W/m 17,9 C 23,7 C 16,1 km/h (3 Bft)
28.05.2018 11:36 23,8 C 72 % 1018,8 hPa 0,0 l/m 3,3 km/h (1 Bft) O 88 3 min 715 W/m 18,4 C 23,8 C 8,0 km/h (2 Bft)
28.05.2018 11:39 24,0 C 70 % 1018,8 hPa 0,0 l/m 5,1 km/h (1 Bft) N-NO 31 3 min 722 W/m 18,2 C 24,0 C 17,7 km/h (3 Bft)
28.05.2018 11:42 23,9 C 69 % 1018,8 hPa 0,0 l/m 7,4 km/h (2 Bft) N-NO 24 3 min 728 W/m 17,9 C 23,6 C 16,1 km/h (3 Bft)
28.05.2018 11:45 23,9 C 68 % 1018,9 hPa 0,0 l/m 5,3 km/h (1 Bft) O 80 3 min 733 W/m 17,6 C 23,9 C 17,7 km/h (3 Bft)
28.05.2018 11:48 24,2 C 69 % 1018,8 hPa 0,0 l/m 3,0 km/h (1 Bft) N-NO 14 3 min 737 W/m 18,1 C 24,2 C 6,4 km/h (2 Bft)
28.05.2018 11:51 24,2 C 67 % 1018,8 hPa 0,0 l/m 3,9 km/h (1 Bft) SO 138 3 min 735 W/m 17,7 C 24,2 C 11,3 km/h (2 Bft)
28.05.2018 11:54 24,1 C 68 % 1018,8 hPa 0,0 l/m 5,1 km/h (1 Bft) O 98 3 min 733 W/m 17,8 C 24,1 C 14,5 km/h (3 Bft)
28.05.2018 11:57 24,2 C 68 % 1018,7 hPa 0,0 l/m 7,2 km/h (2 Bft) N 355 3 min 731 W/m 17,9 C 24,0 C 12,9 km/h (3 Bft)
28.05.2018 12:00 24,2 C 67 % 1018,8 hPa 0,0 l/m 5,4 km/h (2 Bft) NO 36 3 min 714 W/m 17,7 C 24,2 C 14,5 km/h (3 Bft)
28.05.2018 12:03 24,3 C 67 % 1018,8 hPa 0,0 l/m 6,7 km/h (2 Bft) O 83 3 min 698 W/m 17,8 C 24,2 C 12,9 km/h (3 Bft)
28.05.2018 12:06 24,6 C 65 % 1018,9 hPa 0,0 l/m 5,7 km/h (2 Bft) N 355 3 min 675 W/m 17,6 C 24,6 C 12,9 km/h (3 Bft)
28.05.2018 12:09 24,5 C 66 % 1018,9 hPa 0,0 l/m 5,8 km/h (2 Bft) N 360 3 min 656 W/m 17,7 C 24,5 C 16,1 km/h (3 Bft)
28.05.2018 12:12 24,6 C 68 % 1018,9 hPa 0,0 l/m 3,7 km/h (1 Bft) N-NO 22 3 min 631 W/m 18,3 C 24,6 C 9,7 km/h (2 Bft)
28.05.2018 12:15 24,6 C 68 % 1018,8 hPa 0,0 l/m 6,3 km/h (2 Bft) O-SO 116 3 min 613 W/m 18,3 C 24,6 C 14,5 km/h (3 Bft)
28.05.2018 12:18 24,4 C 68 % 1018,9 hPa 0,0 l/m 6,6 km/h (2 Bft) O-SO 119 3 min 601 W/m 18,1 C 24,4 C 14,5 km/h (3 Bft)
28.05.2018 12:21 24,4 C 66 % 1019,0 hPa 0,0 l/m 5,7 km/h (2 Bft) NO 38 3 min 592 W/m 17,6 C 24,4 C 14,5 km/h (3 Bft)
28.05.2018 12:24 24,4 C 67 % 1018,9 hPa 0,0 l/m 6,4 km/h (2 Bft) O-SO 110 3 min 589 W/m 17,9 C 24,4 C 19,3 km/h (3 Bft)
28.05.2018 12:27 24,5 C 67 % 1018,9 hPa 0,0 l/m 7,3 km/h (2 Bft) N-NO 25 3 min 603 W/m 18,0 C 24,3 C 17,7 km/h (3 Bft)
28.05.2018 12:30 24,5 C 67 % 1018,8 hPa 0,0 l/m 3,7 km/h (1 Bft) O 96 3 min 622 W/m 18,0 C 24,5 C 11,3 km/h (2 Bft)
28.05.2018 12:33 24,8 C 68 % 1018,8 hPa 0,0 l/m 2,4 km/h (1 Bft) O 86 3 min 640 W/m 18,5 C 24,8 C 6,4 km/h (2 Bft)
28.05.2018 12:36 24,9 C 67 % 1018,8 hPa 0,0 l/m 4,3 km/h (1 Bft) O 97 3 min 670 W/m 18,3 C 24,9 C 11,3 km/h (2 Bft)
28.05.2018 12:39 25,0 C 65 % 1018,8 hPa 0,0 l/m 3,8 km/h (1 Bft) N 360 3 min 694 W/m 17,9 C 25,0 C 11,3 km/h (2 Bft)
28.05.2018 12:42 24,9 C 66 % 1018,8 hPa 0,0 l/m 6,1 km/h (2 Bft) O 96 3 min 726 W/m 18,1 C 24,9 C 14,5 km/h (3 Bft)
28.05.2018 12:45 25,0 C 67 % 1018,9 hPa 0,0 l/m 7,1 km/h (2 Bft) NO 44 3 min 744 W/m 18,4 C 24,8 C 17,7 km/h (3 Bft)
28.05.2018 12:48 25,1 C 66 % 1018,9 hPa 0,0 l/m 6,9 km/h (2 Bft) NO 40 3 min 759 W/m 18,3 C 25,0 C 14,5 km/h (3 Bft)
28.05.2018 12:51 25,2 C 66 % 1018,9 hPa 0,0 l/m 5,7 km/h (2 Bft) N 360 3 min 770 W/m 18,4 C 25,2 C 12,9 km/h (3 Bft)
28.05.2018 12:54 25,1 C 65 % 1018,9 hPa 0,0 l/m 6,6 km/h (2 Bft) O 90 3 min 775 W/m 18,0 C 25,1 C 12,9 km/h (3 Bft)
28.05.2018 12:57 25,3 C 65 % 1018,9 hPa 0,0 l/m 5,2 km/h (1 Bft) NO 42 3 min 773 W/m 18,2 C 25,3 C 9,7 km/h (2 Bft)
28.05.2018 13:00 25,6 C 66 % 1018,9 hPa 0,0 l/m 4,1 km/h (1 Bft) O-SO 106 3 min 780 W/m 18,8 C 25,6 C 8,0 km/h (2 Bft)
28.05.2018 13:03 25,3 C 64 % 1018,8 hPa 0,0 l/m 6,2 km/h (2 Bft) N-NO 12 3 min 779 W/m 18,0 C 25,3 C 16,1 km/h (3 Bft)
28.05.2018 13:06 25,3 C 66 % 1018,8 hPa 0,0 l/m 4,8 km/h (1 Bft) NO 55 3 min 779 W/m 18,5 C 25,3 C 9,7 km/h (2 Bft)
28.05.2018 13:09 25,4 C 66 % 1018,8 hPa 0,0 l/m 4,9 km/h (1 Bft) N 9 3 min 780 W/m 18,6 C 25,4 C 11,3 km/h (2 Bft)
28.05.2018 13:12 25,6 C 65 % 1018,8 hPa 0,0 l/m 5,6 km/h (2 Bft) N 355 3 min 779 W/m 18,5 C 25,6 C 16,1 km/h (3 Bft)
28.05.2018 13:15 25,6 C 64 % 1018,8 hPa 0,0 l/m 6,3 km/h (2 Bft) N-NO 25 3 min 780 W/m 18,3 C 25,6 C 14,5 km/h (3 Bft)
28.05.2018 13:18 25,7 C 64 % 1018,7 hPa 0,0 l/m 6,5 km/h (2 Bft) N-NW 336 3 min 780 W/m 18,4 C 25,7 C 12,9 km/h (3 Bft)
28.05.2018 13:21 26,0 C 65 % 1018,7 hPa 0,0 l/m 4,0 km/h (1 Bft) N-NO 31 3 min 782 W/m 18,9 C 26,0 C 12,9 km/h (3 Bft)
28.05.2018 13:24 25,8 C 64 % 1018,7 hPa 0,0 l/m 6,0 km/h (2 Bft) O-NO 67 3 min 782 W/m 18,5 C 25,8 C 14,5 km/h (3 Bft)
28.05.2018 13:27 25,7 C 64 % 1018,7 hPa 0,0 l/m 3,8 km/h (1 Bft) O 94 3 min 788 W/m 18,4 C 25,7 C 11,3 km/h (2 Bft)
28.05.2018 13:30 25,8 C 65 % 1018,7 hPa 0,0 l/m 3,9 km/h (1 Bft) O 91 3 min 782 W/m 18,7 C 25,8 C 8,0 km/h (2 Bft)
28.05.2018 13:33 25,8 C 65 % 1018,7 hPa 0,0 l/m 3,5 km/h (1 Bft) N-NW 331 3 min 784 W/m 18,7 C 25,8 C 9,7 km/h (2 Bft)
28.05.2018 13:36 25,8 C 63 % 1018,6 hPa 0,0 l/m 6,8 km/h (2 Bft) N 11 3 min 784 W/m 18,2 C 25,7 C 16,1 km/h (3 Bft)
28.05.2018 13:39 25,6 C 63 % 1018,7 hPa 0,0 l/m 3,8 km/h (1 Bft) O 80 3 min 784 W/m 18,0 C 25,6 C 11,3 km/h (2 Bft)
28.05.2018 13:42 26,1 C 65 % 1018,6 hPa 0,0 l/m 4,1 km/h (1 Bft) O 86 3 min 780 W/m 19,0 C 26,1 C 9,7 km/h (2 Bft)
28.05.2018 13:45 26,2 C 63 % 1018,7 hPa 0,0 l/m 5,1 km/h (1 Bft) NO 48 3 min 784 W/m 18,6 C 26,2 C 11,3 km/h (2 Bft)
28.05.2018 13:48 26,1 C 63 % 1018,6 hPa 0,0 l/m 5,5 km/h (2 Bft) O-NO 78 3 min 784 W/m 18,5 C 26,1 C 14,5 km/h (3 Bft)
28.05.2018 13:51 25,8 C 62 % 1018,6 hPa 0,0 l/m 5,2 km/h (1 Bft) NO 38 3 min 779 W/m 18,0 C 25,8 C 14,5 km/h (3 Bft)
28.05.2018 13:54 26,2 C 63 % 1018,6 hPa 0,0 l/m 4,4 km/h (1 Bft) O 95 3 min 779 W/m 18,6 C 26,2 C 8,0 km/h (2 Bft)
28.05.2018 13:57 26,4 C 61 % 1018,6 hPa 0,0 l/m 4,4 km/h (1 Bft) N 360 3 min 779 W/m 18,3 C 26,4 C 9,7 km/h (2 Bft)
28.05.2018 14:00 26,3 C 63 % 1018,6 hPa 0,0 l/m 4,5 km/h (1 Bft) NW 319 3 min 782 W/m 18,7 C 26,3 C 9,7 km/h (2 Bft)
28.05.2018 14:03 26,3 C 60 % 1018,6 hPa 0,0 l/m 5,9 km/h (2 Bft) O-SO 102 3 min 777 W/m 17,9 C 26,3 C 11,3 km/h (2 Bft)
28.05.2018 14:06 26,4 C 60 % 1018,5 hPa 0,0 l/m 4,9 km/h (1 Bft) SO 129 3 min 775 W/m 18,0 C 26,4 C 11,3 km/h (2 Bft)
28.05.2018 14:09 26,3 C 61 % 1018,5 hPa 0,0 l/m 5,0 km/h (1 Bft) NO 37 3 min 775 W/m 18,2 C 26,3 C 11,3 km/h (2 Bft)
28.05.2018 14:12 26,3 C 62 % 1018,6 hPa 0,0 l/m 5,9 km/h (2 Bft) NO 44 3 min 773 W/m 18,4 C 26,3 C 12,9 km/h (3 Bft)
28.05.2018 14:15 26,6 C 61 % 1018,5 hPa 0,0 l/m 4,2 km/h (1 Bft) N 350 3 min 770 W/m 18,4 C 26,6 C 12,9 km/h (3 Bft)
28.05.2018 14:18 26,8 C 59 % 1018,5 hPa 0,0 l/m 4,7 km/h (1 Bft) N-NO 23 3 min 773 W/m 18,1 C 26,8 C 12,9 km/h (3 Bft)
28.05.2018 14:21 26,7 C 58 % 1018,5 hPa 0,0 l/m 5,6 km/h (2 Bft) O-NO 62 3 min 768 W/m 17,7 C 26,7 C 14,5 km/h (3 Bft)
28.05.2018 14:24 26,4 C 60 % 1018,4 hPa 0,0 l/m 3,4 km/h (1 Bft) NO 55 3 min 766 W/m 18,0 C 26,4 C 6,4 km/h (2 Bft)
28.05.2018 14:27 26,4 C 60 % 1018,4 hPa 0,0 l/m 5,2 km/h (1 Bft) N 5 3 min 765 W/m 18,0 C 26,4 C 11,3 km/h (2 Bft)
28.05.2018 14:30 26,4 C 61 % 1018,4 hPa 0,0 l/m 4,4 km/h (1 Bft) O-NO 65 3 min 761 W/m 18,3 C 26,4 C 14,5 km/h (3 Bft)
28.05.2018 14:33 26,6 C 60 % 1018,3 hPa 0,0 l/m 5,0 km/h (1 Bft) O-SO 119 3 min 759 W/m 18,2 C 26,6 C 11,3 km/h (2 Bft)
28.05.2018 14:36 26,7 C 58 % 1018,4 hPa 0,0 l/m 5,1 km/h (1 Bft) O 88 3 min 759 W/m 17,7 C 26,7 C 12,9 km/h (3 Bft)
28.05.2018 14:39 26,8 C 59 % 1018,3 hPa 0,0 l/m 6,1 km/h (2 Bft) SW 217 3 min 756 W/m 18,1 C 26,8 C 16,1 km/h (3 Bft)
28.05.2018 14:42 26,8 C 61 % 1018,3 hPa 0,0 l/m 3,6 km/h (1 Bft) O 90 3 min 751 W/m 18,6 C 26,8 C 9,7 km/h (2 Bft)
28.05.2018 14:45 26,9 C 61 % 1018,3 hPa 0,0 l/m 3,5 km/h (1 Bft) O-NO 58 3 min 747 W/m 18,7 C 26,9 C 8,0 km/h (2 Bft)
28.05.2018 14:48 26,9 C 60 % 1018,4 hPa 0,0 l/m 6,4 km/h (2 Bft) NO 55 3 min 745 W/m 18,5 C 26,9 C 14,5 km/h (3 Bft)
28.05.2018 14:51 26,9 C 60 % 1018,3 hPa 0,0 l/m 4,6 km/h (1 Bft) NO 46 3 min 742 W/m 18,5 C 26,9 C 12,9 km/h (3 Bft)
28.05.2018 14:54 27,2 C 57 % 1018,3 hPa 0,0 l/m 5,1 km/h (1 Bft) N-NO 32 3 min 737 W/m 17,9 C 27,2 C 9,7 km/h (2 Bft)
28.05.2018 14:57 27,2 C 59 % 1018,2 hPa 0,0 l/m 4,2 km/h (1 Bft) N 349 3 min 735 W/m 18,5 C 27,2 C 9,7 km/h (2 Bft)
28.05.2018 15:00 27,2 C 59 % 1018,2 hPa 0,0 l/m 3,3 km/h (1 Bft) NO 46 3 min 731 W/m 18,5 C 27,2 C 8,0 km/h (2 Bft)
28.05.2018 15:03 27,4 C 58 % 1018,2 hPa 0,0 l/m 4,5 km/h (1 Bft) O 87 3 min 729 W/m 18,4 C 27,4 C 12,9 km/h (3 Bft)
28.05.2018 15:06 27,3 C 59 % 1018,2 hPa 0,0 l/m 5,6 km/h (2 Bft) O 89 3 min 724 W/m 18,6 C 27,3 C 9,7 km/h (2 Bft)
28.05.2018 15:09 27,3 C 58 % 1018,1 hPa 0,0 l/m 4,4 km/h (1 Bft) NO 47 3 min 719 W/m 18,3 C 27,3 C 8,0 km/h (2 Bft)
28.05.2018 15:12 27,5 C 58 % 1018,1 hPa 0,0 l/m 5,2 km/h (1 Bft) NW 306 3 min 715 W/m 18,5 C 27,5 C 12,9 km/h (3 Bft)
28.05.2018 15:15 27,4 C 59 % 1018,2 hPa 0,0 l/m 4,8 km/h (1 Bft) O-NO 67 3 min 707 W/m 18,7 C 27,4 C 11,3 km/h (2 Bft)
28.05.2018 15:18 27,4 C 59 % 1018,0 hPa 0,0 l/m 4,8 km/h (1 Bft) O 92 3 min 707 W/m 18,7 C 27,4 C 12,9 km/h (3 Bft)
28.05.2018 15:21 27,5 C 60 % 1018,0 hPa 0,0 l/m 3,3 km/h (1 Bft) NO 34 3 min 703 W/m 19,0 C 27,5 C 9,7 km/h (2 Bft)
28.05.2018 15:24 27,7 C 59 % 1018,0 hPa 0,0 l/m 2,5 km/h (1 Bft) N-NO 21 3 min 698 W/m 18,9 C 27,7 C 8,0 km/h (2 Bft)
28.05.2018 15:27 27,7 C 60 % 1018,0 hPa 0,0 l/m 3,9 km/h (1 Bft) N-NO 21 3 min 700 W/m 19,2 C 27,7 C 8,0 km/h (2 Bft)
28.05.2018 15:30 27,6 C 58 % 1018,0 hPa 0,0 l/m 4,5 km/h (1 Bft) SO 137 3 min 696 W/m 18,6 C 27,6 C 9,7 km/h (2 Bft)
28.05.2018 15:33 27,9 C 58 % 1017,9 hPa 0,0 l/m 4,2 km/h (1 Bft) O-SO 107 3 min 691 W/m 18,9 C 27,9 C 9,7 km/h (2 Bft)
28.05.2018 15:36 27,9 C 58 % 1018,0 hPa 0,0 l/m 5,4 km/h (2 Bft) N-NW 337 3 min 689 W/m 18,9 C 27,9 C 16,1 km/h (3 Bft)
28.05.2018 15:39 27,9 C 56 % 1017,9 hPa 0,0 l/m 5,1 km/h (1 Bft) O-NO 64 3 min 687 W/m 18,3 C 27,9 C 16,1 km/h (3 Bft)
28.05.2018 15:42 27,9 C 57 % 1017,9 hPa 0,0 l/m 4,7 km/h (1 Bft) N-NO 23 3 min 682 W/m 18,6 C 27,9 C 11,3 km/h (2 Bft)
28.05.2018 15:45 27,8 C 58 % 1017,9 hPa 0,0 l/m 4,2 km/h (1 Bft) O 94 3 min 679 W/m 18,8 C 27,8 C 11,3 km/h (2 Bft)
28.05.2018 15:48 27,8 C 60 % 1018,0 hPa 0,0 l/m 3,8 km/h (1 Bft) N-NO 17 3 min 661 W/m 19,3 C 27,8 C 8,0 km/h (2 Bft)
28.05.2018 15:51 27,5 C 62 % 1017,9 hPa 0,0 l/m 3,0 km/h (1 Bft) N 360 3 min 657 W/m 19,6 C 27,5 C 6,4 km/h (2 Bft)
28.05.2018 15:54 27,4 C 63 % 1017,9 hPa 0,0 l/m 3,5 km/h (1 Bft) N 351 3 min 647 W/m 19,7 C 27,4 C 8,0 km/h (2 Bft)
28.05.2018 15:57 27,5 C 63 % 1017,9 hPa 0,0 l/m 4,3 km/h (1 Bft) W-NW 296 3 min 654 W/m 19,8 C 27,5 C 11,3 km/h (2 Bft)
28.05.2018 16:00 27,6 C 62 % 1018,0 hPa 0,0 l/m 6,4 km/h (2 Bft) NW 325 3 min 643 W/m 19,6 C 27,6 C 14,5 km/h (3 Bft)
28.05.2018 16:03 27,6 C 62 % 1017,9 hPa 0,0 l/m 5,3 km/h (1 Bft) W-NW 285 3 min 636 W/m 19,6 C 27,6 C 11,3 km/h (2 Bft)
28.05.2018 16:06 27,3 C 61 % 1017,9 hPa 0,0 l/m 3,8 km/h (1 Bft) N-NO 17 3 min 629 W/m 19,1 C 27,3 C 9,7 km/h (2 Bft)
28.05.2018 16:09 26,8 C 64 % 1017,9 hPa 0,0 l/m 3,1 km/h (1 Bft) N-NO 30 3 min 631 W/m 19,4 C 26,8 C 6,4 km/h (2 Bft)
28.05.2018 16:12 27,1 C 63 % 1017,9 hPa 0,0 l/m 2,8 km/h (1 Bft) N-NW 328 3 min 628 W/m 19,4 C 27,1 C 6,4 km/h (2 Bft)
28.05.2018 16:15 27,2 C 63 % 1017,9 hPa 0,0 l/m 5,2 km/h (1 Bft) N 360 3 min 615 W/m 19,5 C 27,2 C 8,0 km/h (2 Bft)
28.05.2018 16:18 27,3 C 63 % 1017,9 hPa 0,0 l/m 5,1 km/h (1 Bft) N 10 3 min 599 W/m 19,6 C 27,3 C 12,9 km/h (3 Bft)
28.05.2018 16:21 27,3 C 64 % 1017,8 hPa 0,0 l/m 4,0 km/h (1 Bft) NW 313 3 min 603 W/m 19,9 C 27,3 C 9,7 km/h (2 Bft)
28.05.2018 16:24 27,2 C 63 % 1017,8 hPa 0,0 l/m 3,5 km/h (1 Bft) N-NO 19 3 min 594 W/m 19,5 C 27,2 C 6,4 km/h (2 Bft)
28.05.2018 16:27 27,3 C 64 % 1017,8 hPa 0,0 l/m 3,3 km/h (1 Bft) N-NW 344 3 min 585 W/m 19,9 C 27,3 C 9,7 km/h (2 Bft)
28.05.2018 16:30 27,2 C 64 % 1017,7 hPa 0,0 l/m 4,0 km/h (1 Bft) N-NO 24 3 min 575 W/m 19,8 C 27,2 C 9,7 km/h (2 Bft)
28.05.2018 16:33 27,4 C 63 % 1017,7 hPa 0,0 l/m 5,2 km/h (1 Bft) N 355 3 min 573 W/m 19,7 C 27,4 C 9,7 km/h (2 Bft)
28.05.2018 16:36 27,4 C 63 % 1017,7 hPa 0,0 l/m 3,2 km/h (1 Bft) N 360 3 min 570 W/m 19,7 C 27,4 C 6,4 km/h (2 Bft)
28.05.2018 16:39 27,4 C 62 % 1017,7 hPa 0,0 l/m 3,0 km/h (1 Bft) N-NW 327 3 min 557 W/m 19,5 C 27,4 C 6,4 km/h (2 Bft)
28.05.2018 16:42 27,4 C 64 % 1017,7 hPa 0,0 l/m 4,8 km/h (1 Bft) N-NW 341 3 min 552 W/m 20,0 C 27,4 C 12,9 km/h (3 Bft)
28.05.2018 16:45 27,4 C 63 % 1017,6 hPa 0,0 l/m 6,9 km/h (2 Bft) N-NW 336 3 min 543 W/m 19,7 C 27,3 C 17,7 km/h (3 Bft)
28.05.2018 16:48 27,4 C 63 % 1017,6 hPa 0,0 l/m 6,4 km/h (2 Bft) N-NW 340 3 min 536 W/m 19,7 C 27,4 C 17,7 km/h (3 Bft)
28.05.2018 16:51 27,3 C 64 % 1017,6 hPa 0,0 l/m 3,3 km/h (1 Bft) W-NW 294 3 min 531 W/m 19,9 C 27,3 C 6,4 km/h (2 Bft)
28.05.2018 16:54 27,1 C 65 % 1017,6 hPa 0,0 l/m 3,8 km/h (1 Bft) NW 324 3 min 527 W/m 19,9 C 27,1 C 17,7 km/h (3 Bft)
28.05.2018 16:57 27,2 C 65 % 1017,5 hPa 0,0 l/m 8,6 km/h (2 Bft) N 349 3 min 524 W/m 20,0 C 26,8 C 17,7 km/h (3 Bft)
28.05.2018 17:00 27,2 C 65 % 1017,5 hPa 0,0 l/m 4,5 km/h (1 Bft) NW 313 3 min 510 W/m 20,0 C 27,2 C 8,0 km/h (2 Bft)
28.05.2018 17:03 27,0 C 65 % 1017,5 hPa 0,0 l/m 6,4 km/h (2 Bft) N-NW 331 3 min 508 W/m 19,8 C 27,0 C 11,3 km/h (2 Bft)
28.05.2018 17:06 27,2 C 65 % 1017,5 hPa 0,0 l/m 6,6 km/h (2 Bft) NW 325 3 min 501 W/m 20,0 C 27,2 C 11,3 km/h (2 Bft)
28.05.2018 17:09 27,3 C 64 % 1017,5 hPa 0,0 l/m 10,2 km/h (2 Bft) N-NW 338 3 min 497 W/m 19,9 C 26,7 C 16,1 km/h (3 Bft)
28.05.2018 17:12 27,0 C 65 % 1017,4 hPa 0,0 l/m 3,5 km/h (1 Bft) NW 306 3 min 487 W/m 19,8 C 27,0 C 8,0 km/h (2 Bft)
28.05.2018 17:15 26,9 C 66 % 1017,4 hPa 0,0 l/m 3,2 km/h (1 Bft) NO 45 3 min 483 W/m 20,0 C 26,9 C 6,4 km/h (2 Bft)
28.05.2018 17:18 26,7 C 66 % 1017,4 hPa 0,0 l/m 5,4 km/h (2 Bft) N-NW 333 3 min 473 W/m 19,8 C 26,7 C 9,7 km/h (2 Bft)
28.05.2018 17:21 26,6 C 67 % 1017,3 hPa 0,0 l/m 6,6 km/h (2 Bft) W-NW 300 3 min 473 W/m 20,0 C 26,6 C 12,9 km/h (3 Bft)
28.05.2018 17:24 26,7 C 67 % 1017,3 hPa 0,0 l/m 3,9 km/h (1 Bft) W-NW 290 3 min 459 W/m 20,0 C 26,7 C 8,0 km/h (2 Bft)
28.05.2018 17:27 26,6 C 67 % 1017,2 hPa 0,0 l/m 4,1 km/h (1 Bft) NW 325 3 min 450 W/m 20,0 C 26,6 C 14,5 km/h (3 Bft)
28.05.2018 17:30 26,5 C 68 % 1017,3 hPa 0,0 l/m 4,1 km/h (1 Bft) N 10 3 min 445 W/m 20,1 C 26,5 C 12,9 km/h (3 Bft)
28.05.2018 17:33 26,4 C 68 % 1017,2 hPa 0,0 l/m 4,9 km/h (1 Bft) N 5 3 min 438 W/m 20,0 C 26,4 C 9,7 km/h (2 Bft)
28.05.2018 17:36 26,3 C 67 % 1017,2 hPa 0,0 l/m 3,2 km/h (1 Bft) N-NW 345 3 min 429 W/m 19,7 C 26,3 C 6,4 km/h (2 Bft)
28.05.2018 17:39 26,2 C 68 % 1017,2 hPa 0,0 l/m 5,2 km/h (1 Bft) N-NW 339 3 min 424 W/m 19,8 C 26,2 C 11,3 km/h (2 Bft)
28.05.2018 17:42 26,0 C 68 % 1017,2 hPa 0,0 l/m 3,9 km/h (1 Bft) N-NW 344 3 min 415 W/m 19,6 C 26,0 C 9,7 km/h (2 Bft)
28.05.2018 17:45 26,0 C 69 % 1017,2 hPa 0,0 l/m 5,8 km/h (2 Bft) N-NW 336 3 min 415 W/m 19,9 C 26,0 C 12,9 km/h (3 Bft)
28.05.2018 17:48 26,0 C 69 % 1017,2 hPa 0,0 l/m 5,6 km/h (2 Bft) N 5 3 min 401 W/m 19,9 C 26,0 C 9,7 km/h (2 Bft)
28.05.2018 17:51 26,1 C 69 % 1017,2 hPa 0,0 l/m 3,7 km/h (1 Bft) N 351 3 min 387 W/m 20,0 C 26,1 C 6,4 km/h (2 Bft)
28.05.2018 17:54 25,9 C 69 % 1017,2 hPa 0,0 l/m 3,5 km/h (1 Bft) N-NW 331 3 min 381 W/m 19,8 C 25,9 C 8,0 km/h (2 Bft)
28.05.2018 17:57 26,0 C 70 % 1017,2 hPa 0,0 l/m 4,0 km/h (1 Bft) N-NW 337 3 min 376 W/m 20,1 C 26,0 C 9,7 km/h (2 Bft)
28.05.2018 18:00 26,2 C 70 % 1017,2 hPa 0,0 l/m 6,6 km/h (2 Bft) N-NW 333 3 min 364 W/m 20,3 C 26,2 C 17,7 km/h (3 Bft)
28.05.2018 18:03 26,1 C 70 % 1017,2 hPa 0,0 l/m 3,3 km/h (1 Bft) N-NW 338 3 min 353 W/m 20,2 C 26,1 C 9,7 km/h (2 Bft)
28.05.2018 18:06 25,7 C 71 % 1017,2 hPa 0,0 l/m 5,2 km/h (1 Bft) N-NW 334 3 min 359 W/m 20,0 C 25,7 C 9,7 km/h (2 Bft)
28.05.2018 18:09 25,6 C 71 % 1017,2 hPa 0,0 l/m 4,8 km/h (1 Bft) NO 38 3 min 352 W/m 19,9 C 25,6 C 14,5 km/h (3 Bft)
28.05.2018 18:12 25,6 C 71 % 1017,2 hPa 0,0 l/m 5,3 km/h (1 Bft) N-NW 338 3 min 329 W/m 19,9 C 25,6 C 11,3 km/h (2 Bft)
28.05.2018 18:15 25,2 C 71 % 1017,1 hPa 0,0 l/m 3,5 km/h (1 Bft) W-NW 300 3 min 315 W/m 19,6 C 25,2 C 6,4 km/h (2 Bft)
28.05.2018 18:18 25,0 C 73 % 1017,1 hPa 0,0 l/m 3,8 km/h (1 Bft) N-NW 336 3 min 306 W/m 19,8 C 25,0 C 8,0 km/h (2 Bft)
28.05.2018 18:21 24,9 C 73 % 1017,1 hPa 0,0 l/m 3,1 km/h (1 Bft) N-NW 338 3 min 272 W/m 19,7 C 24,9 C 6,4 km/h (2 Bft)
28.05.2018 18:24 25,0 C 72 % 1017,1 hPa 0,0 l/m 6,4 km/h (2 Bft) N 11 0 min 232 W/m 19,6 C 25,0 C 16,1 km/h (3 Bft)
28.05.2018 18:27 24,9 C 72 % 1017,1 hPa 0,0 l/m 5,9 km/h (2 Bft) NO 34 3 min 322 W/m 19,5 C 24,9 C 12,9 km/h (3 Bft)
28.05.2018 18:30 25,3 C 72 % 1017,1 hPa 0,0 l/m 5,2 km/h (1 Bft) N 5 3 min 318 W/m 19,9 C 25,3 C 9,7 km/h (2 Bft)
28.05.2018 18:33 25,2 C 71 % 1017,1 hPa 0,0 l/m 5,9 km/h (2 Bft) O-NO 59 0 min 169 W/m 19,6 C 25,2 C 11,3 km/h (2 Bft)
28.05.2018 18:36 25,3 C 72 % 1017,1 hPa 0,0 l/m 5,6 km/h (2 Bft) N 5 0 min 141 W/m 19,9 C 25,3 C 12,9 km/h (3 Bft)
28.05.2018 18:39 25,4 C 71 % 1017,1 hPa 0,0 l/m 6,1 km/h (2 Bft) N-NO 20 0 min 139 W/m 19,7 C 25,4 C 12,9 km/h (3 Bft)
28.05.2018 18:42 25,6 C 71 % 1017,1 hPa 0,0 l/m 6,2 km/h (2 Bft) N-NW 336 0 min 135 W/m 19,9 C 25,6 C 14,5 km/h (3 Bft)
28.05.2018 18:45 25,7 C 70 % 1017,1 hPa 0,0 l/m 6,0 km/h (2 Bft) N-NO 22 0 min 130 W/m 19,8 C 25,7 C 14,5 km/h (3 Bft)
28.05.2018 18:48 25,7 C 71 % 1017,1 hPa 0,0 l/m 4,9 km/h (1 Bft) NW 323 0 min 141 W/m 20,0 C 25,7 C 9,7 km/h (2 Bft)
28.05.2018 18:51 25,7 C 71 % 1017,1 hPa 0,0 l/m 4,6 km/h (1 Bft) N 355 0 min 128 W/m 20,0 C 25,7 C 8,0 km/h (2 Bft)
28.05.2018 18:54 25,5 C 72 % 1017,1 hPa 0,0 l/m 3,8 km/h (1 Bft) N-NW 331 0 min 121 W/m 20,1 C 25,5 C 12,9 km/h (3 Bft)
28.05.2018 18:57 25,3 C 72 % 1017,1 hPa 0,0 l/m 4,7 km/h (1 Bft) N 351 0 min 114 W/m 19,9 C 25,3 C 11,3 km/h (2 Bft)
28.05.2018 19:00 25,2 C 73 % 1017,0 hPa 0,0 l/m 5,3 km/h (1 Bft) N-NW 333 0 min 109 W/m 20,0 C 25,2 C 16,1 km/h (3 Bft)
28.05.2018 19:03 25,1 C 74 % 1017,0 hPa 0,0 l/m 3,8 km/h (1 Bft) NW 320 0 min 100 W/m 20,1 C 25,1 C 8,0 km/h (2 Bft)
28.05.2018 19:06 24,8 C 75 % 1017,0 hPa 0,0 l/m 2,5 km/h (1 Bft) N 5 0 min 90 W/m 20,1 C 24,8 C 4,8 km/h (1 Bft)
28.05.2018 19:09 24,7 C 75 % 1017,1 hPa 0,0 l/m 3,1 km/h (1 Bft) N 360 0 min 84 W/m 20,0 C 24,7 C 6,4 km/h (2 Bft)
28.05.2018 19:12 24,7 C 76 % 1017,0 hPa 0,0 l/m 3,9 km/h (1 Bft) N-NW 344 0 min 83 W/m 20,2 C 24,7 C 8,0 km/h (2 Bft)
28.05.2018 19:15 24,6 C 76 % 1017,0 hPa 0,0 l/m 4,0 km/h (1 Bft) N-NO 27 0 min 83 W/m 20,1 C 24,6 C 8,0 km/h (2 Bft)
28.05.2018 19:18 24,6 C 77 % 1017,0 hPa 0,0 l/m 3,8 km/h (1 Bft) N-NW 336 0 min 86 W/m 20,3 C 24,6 C 9,7 km/h (2 Bft)
28.05.2018 19:21 24,5 C 77 % 1017,0 hPa 0,0 l/m 3,0 km/h (1 Bft) NW 321 0 min 88 W/m 20,2 C 24,5 C 8,0 km/h (2 Bft)
28.05.2018 19:24 24,4 C 78 % 1017,0 hPa 0,0 l/m 2,0 km/h (1 Bft) N-NW 329 0 min 88 W/m 20,3 C 24,4 C 4,8 km/h (1 Bft)
28.05.2018 19:27 24,4 C 78 % 1017,0 hPa 0,0 l/m 3,1 km/h (1 Bft) N 5 0 min 90 W/m 20,3 C 24,4 C 6,4 km/h (2 Bft)
28.05.2018 19:30 24,6 C 79 % 1017,1 hPa 0,0 l/m 2,9 km/h (1 Bft) NW 323 0 min 91 W/m 20,7 C 24,6 C 4,8 km/h (1 Bft)
28.05.2018 19:33 24,6 C 79 % 1017,1 hPa 0,0 l/m 3,2 km/h (1 Bft) N 355 0 min 91 W/m 20,7 C 24,6 C 9,7 km/h (2 Bft)
28.05.2018 19:36 24,7 C 79 % 1017,1 hPa 0,0 l/m 2,9 km/h (1 Bft) N-NW 331 0 min 93 W/m 20,8 C 24,7 C 4,8 km/h (1 Bft)
28.05.2018 19:39 24,7 C 79 % 1017,1 hPa 0,0 l/m 2,5 km/h (1 Bft) N 5 0 min 91 W/m 20,8 C 24,7 C 6,4 km/h (2 Bft)
28.05.2018 19:42 24,6 C 79 % 1017,0 hPa 0,0 l/m 3,0 km/h (1 Bft) N-NW 348 0 min 90 W/m 20,7 C 24,6 C 8,0 km/h (2 Bft)
28.05.2018 19:45 24,6 C 79 % 1017,0 hPa 0,0 l/m 1,3 km/h (1 Bft) N 360 0 min 86 W/m 20,7 C 24,6 C 4,8 km/h (1 Bft)
28.05.2018 19:48 24,6 C 80 % 1017,1 hPa 0,0 l/m 2,0 km/h (1 Bft) N-NW 332 0 min 84 W/m 20,9 C 24,6 C 4,8 km/h (1 Bft)
28.05.2018 19:51 24,6 C 79 % 1017,1 hPa 0,0 l/m 1,7 km/h (1 Bft) N-NO 24 0 min 81 W/m 20,7 C 24,6 C 4,8 km/h (1 Bft)
28.05.2018 19:54 24,5 C 79 % 1017,1 hPa 0,0 l/m 1,0 km/h (0 Bft) N-NO 31 0 min 77 W/m 20,6 C 24,5 C 3,2 km/h (1 Bft)
28.05.2018 19:57 24,3 C 79 % 1017,1 hPa 0,0 l/m 0,6 km/h (0 Bft) N-NO 29 0 min 76 W/m 20,4 C 24,3 C 3,2 km/h (1 Bft)
28.05.2018 20:00 24,2 C 80 % 1017,1 hPa 0,0 l/m 0,5 km/h (0 Bft) N-NO 29 0 min 72 W/m 20,5 C 24,2 C 3,2 km/h (1 Bft)
28.05.2018 20:03 24,2 C 80 % 1017,1 hPa 0,0 l/m 0,7 km/h (0 Bft) N-NO 19 0 min 70 W/m 20,5 C 24,2 C 3,2 km/h (1 Bft)
28.05.2018 20:06 24,1 C 80 % 1017,0 hPa 0,0 l/m 0,4 km/h (0 Bft) N-NO 17 0 min 67 W/m 20,4 C 24,1 C 1,6 km/h (1 Bft)
28.05.2018 20:09 24,0 C 81 % 1016,9 hPa 0,0 l/m 0,6 km/h (0 Bft) NW 316 0 min 63 W/m 20,5 C 24,0 C 4,8 km/h (1 Bft)
28.05.2018 20:12 24,1 C 81 % 1016,8 hPa 0,0 l/m 3,6 km/h (1 Bft) NO 35 0 min 58 W/m 20,6 C 24,1 C 8,0 km/h (2 Bft)
28.05.2018 20:15 24,2 C 81 % 1016,8 hPa 0,0 l/m 4,6 km/h (1 Bft) N 349 0 min 54 W/m 20,7 C 24,2 C 12,9 km/h (3 Bft)
28.05.2018 20:18 24,3 C 80 % 1016,8 hPa 0,0 l/m 5,0 km/h (1 Bft) NW 319 0 min 51 W/m 20,6 C 24,3 C 9,7 km/h (2 Bft)
28.05.2018 20:21 24,3 C 80 % 1016,8 hPa 0,0 l/m 4,5 km/h (1 Bft) NW 307 0 min 47 W/m 20,6 C 24,3 C 8,0 km/h (2 Bft)
28.05.2018 20:24 24,3 C 81 % 1016,9 hPa 0,0 l/m 3,8 km/h (1 Bft) O-NO 63 0 min 44 W/m 20,8 C 24,3 C 14,5 km/h (3 Bft)
28.05.2018 20:27 24,2 C 81 % 1016,9 hPa 0,0 l/m 3,2 km/h (1 Bft) N-NW 334 0 min 42 W/m 20,7 C 24,2 C 8,0 km/h (2 Bft)
28.05.2018 20:30 24,2 C 81 % 1016,9 hPa 0,0 l/m 4,7 km/h (1 Bft) N 5 0 min 40 W/m 20,7 C 24,2 C 12,9 km/h (3 Bft)
28.05.2018 20:33 24,1 C 81 % 1016,9 hPa 0,0 l/m 4,3 km/h (1 Bft) N 355 0 min 39 W/m 20,6 C 24,1 C 8,0 km/h (2 Bft)
28.05.2018 20:36 24,1 C 80 % 1016,9 hPa 0,0 l/m 4,8 km/h (1 Bft) NO 54 0 min 39 W/m 20,4 C 24,1 C 12,9 km/h (3 Bft)
28.05.2018 20:39 23,9 C 81 % 1017,0 hPa 0,0 l/m 4,0 km/h (1 Bft) N 355 0 min 37 W/m 20,4 C 23,9 C 8,0 km/h (2 Bft)
28.05.2018 20:42 23,8 C 81 % 1017,1 hPa 0,0 l/m 3,0 km/h (1 Bft) NO 38 0 min 33 W/m 20,3 C 23,8 C 6,4 km/h (2 Bft)
28.05.2018 20:45 23,7 C 81 % 1017,1 hPa 0,0 l/m 4,3 km/h (1 Bft) NO 42 0 min 32 W/m 20,2 C 23,7 C 12,9 km/h (3 Bft)
28.05.2018 20:48 23,7 C 82 % 1017,2 hPa 0,0 l/m 4,0 km/h (1 Bft) N-NW 342 0 min 28 W/m 20,4 C 23,7 C 9,7 km/h (2 Bft)
28.05.2018 20:51 23,7 C 82 % 1017,1 hPa 0,0 l/m 4,4 km/h (1 Bft) N-NO 23 0 min 28 W/m 20,4 C 23,7 C 12,9 km/h (3 Bft)
28.05.2018 20:54 23,7 C 81 % 1017,2 hPa 0,0 l/m 2,9 km/h (1 Bft) N 9 0 min 25 W/m 20,2 C 23,7 C 9,7 km/h (2 Bft)
28.05.2018 20:57 23,6 C 81 % 1017,2 hPa 0,0 l/m 3,6 km/h (1 Bft) N-NO 13 0 min 25 W/m 20,1 C 23,6 C 11,3 km/h (2 Bft)
28.05.2018 21:00 23,6 C 81 % 1017,2 hPa 0,0 l/m 3,1 km/h (1 Bft) W-NW 298 0 min 23 W/m 20,1 C 23,6 C 9,7 km/h (2 Bft)
28.05.2018 21:03 23,5 C 82 % 1017,2 hPa 0,0 l/m 3,5 km/h (1 Bft) S-SO 160 0 min 23 W/m 20,2 C 23,5 C 11,3 km/h (2 Bft)
28.05.2018 21:06 23,4 C 82 % 1017,2 hPa 0,0 l/m 2,8 km/h (1 Bft) NW 310 0 min 21 W/m 20,1 C 23,4 C 8,0 km/h (2 Bft)
28.05.2018 21:09 23,3 C 82 % 1017,2 hPa 0,0 l/m 4,2 km/h (1 Bft) N-NW 348 0 min 19 W/m 20,0 C 23,3 C 16,1 km/h (3 Bft)
28.05.2018 21:12 23,3 C 82 % 1017,3 hPa 0,0 l/m 2,5 km/h (1 Bft) NW 325 0 min 18 W/m 20,0 C 23,3 C 4,8 km/h (1 Bft)
28.05.2018 21:15 23,2 C 82 % 1017,3 hPa 0,0 l/m 3,8 km/h (1 Bft) N-NW 331 0 min 16 W/m 19,9 C 23,2 C 14,5 km/h (3 Bft)
28.05.2018 21:18 23,1 C 82 % 1017,3 hPa 0,0 l/m 3,9 km/h (1 Bft) N-NO 12 0 min 12 W/m 19,9 C 23,1 C 12,9 km/h (3 Bft)
28.05.2018 21:21 23,0 C 83 % 1017,3 hPa 0,0 l/m 3,0 km/h (1 Bft) N-NW 328 0 min 11 W/m 20,0 C 23,0 C 8,0 km/h (2 Bft)
28.05.2018 21:24 22,9 C 84 % 1017,3 hPa 0,0 l/m 2,4 km/h (1 Bft) NW 321 0 min 9 W/m 20,0 C 22,9 C 4,8 km/h (1 Bft)
28.05.2018 21:27 22,7 C 83 % 1017,4 hPa 0,0 l/m 2,4 km/h (1 Bft) W-NW 302 0 min 7 W/m 19,7 C 22,7 C 4,8 km/h (1 Bft)
28.05.2018 21:30 22,7 C 83 % 1017,5 hPa 0,0 l/m 3,6 km/h (1 Bft) W-NW 296 0 min 5 W/m 19,7 C 22,7 C 11,3 km/h (2 Bft)
28.05.2018 21:33 22,6 C 83 % 1017,6 hPa 0,0 l/m 4,2 km/h (1 Bft) N 350 0 min 5 W/m 19,6 C 22,6 C 16,1 km/h (3 Bft)
28.05.2018 21:36 22,4 C 84 % 1017,5 hPa 0,0 l/m 4,4 km/h (1 Bft) N 11 0 min 0 W/m 19,6 C 22,4 C 11,3 km/h (2 Bft)
28.05.2018 21:39 22,4 C 84 % 1017,6 hPa 0,0 l/m 3,8 km/h (1 Bft) N 360 0 min 0 W/m 19,6 C 22,4 C 8,0 km/h (2 Bft)
28.05.2018 21:42 22,4 C 83 % 1017,6 hPa 0,0 l/m 3,6 km/h (1 Bft) N-NW 335 0 min 0 W/m 19,4 C 22,4 C 8,0 km/h (2 Bft)
28.05.2018 21:45 22,4 C 83 % 1017,7 hPa 0,0 l/m 3,4 km/h (1 Bft) NO 34 0 min 0 W/m 19,4 C 22,4 C 8,0 km/h (2 Bft)
28.05.2018 21:48 22,3 C 83 % 1017,7 hPa 0,0 l/m 2,4 km/h (1 Bft) N 350 0 min 0 W/m 19,3 C 22,3 C 4,8 km/h (1 Bft)
28.05.2018 21:51 22,2 C 84 % 1017,8 hPa 0,0 l/m 3,3 km/h (1 Bft) NO 51 0 min 0 W/m 19,4 C 22,2 C 9,7 km/h (2 Bft)
28.05.2018 21:54 22,0 C 84 % 1017,8 hPa 0,0 l/m 2,5 km/h (1 Bft) NW 315 0 min 0 W/m 19,2 C 22,0 C 4,8 km/h (1 Bft)
28.05.2018 21:57 21,9 C 85 % 1017,8 hPa 0,0 l/m 1,9 km/h (1 Bft) W-NW 296 0 min 0 W/m 19,3 C 21,9 C 4,8 km/h (1 Bft)
28.05.2018 22:00 21,8 C 85 % 1017,8 hPa 0,0 l/m 2,4 km/h (1 Bft) N-NO 15 0 min 0 W/m 19,2 C 21,8 C 6,4 km/h (2 Bft)
28.05.2018 22:03 21,8 C 85 % 1017,7 hPa 0,0 l/m 2,0 km/h (1 Bft) N 349 0 min 0 W/m 19,2 C 21,8 C 4,8 km/h (1 Bft)
28.05.2018 22:06 21,8 C 85 % 1017,7 hPa 0,0 l/m 2,1 km/h (1 Bft) NW 321 0 min 0 W/m 19,2 C 21,8 C 4,8 km/h (1 Bft)
28.05.2018 22:09 21,6 C 85 % 1017,7 hPa 0,0 l/m 2,4 km/h (1 Bft) W-NW 282 0 min 0 W/m 19,0 C 21,6 C 6,4 km/h (2 Bft)
28.05.2018 22:12 21,5 C 85 % 1017,7 hPa 0,0 l/m 1,5 km/h (1 Bft) S 189 0 min 0 W/m 18,9 C 21,5 C 3,2 km/h (1 Bft)
28.05.2018 22:15 21,3 C 86 % 1017,8 hPa 0,0 l/m 1,4 km/h (1 Bft) O-NO 71 0 min 0 W/m 18,9 C 21,3 C 3,2 km/h (1 Bft)
28.05.2018 22:18 21,2 C 86 % 1017,8 hPa 0,0 l/m 2,1 km/h (1 Bft) NO 34 0 min 0 W/m 18,8 C 21,2 C 6,4 km/h (2 Bft)
28.05.2018 22:21 21,2 C 86 % 1017,7 hPa 0,0 l/m 1,9 km/h (1 Bft) W-SW 247 0 min 0 W/m 18,8 C 21,2 C 6,4 km/h (2 Bft)
28.05.2018 22:24 21,1 C 86 % 1017,7 hPa 0,0 l/m 1,4 km/h (1 Bft) NW 312 0 min 0 W/m 18,7 C 21,1 C 4,8 km/h (1 Bft)
28.05.2018 22:27 21,0 C 86 % 1017,7 hPa 0,0 l/m 2,8 km/h (1 Bft) N 9 0 min 0 W/m 18,6 C 21,0 C 6,4 km/h (2 Bft)
28.05.2018 22:30 20,9 C 86 % 1017,7 hPa 0,0 l/m 1,6 km/h (1 Bft) SW 219 0 min 0 W/m 18,5 C 20,9 C 4,8 km/h (1 Bft)
28.05.2018 22:33 20,8 C 86 % 1017,8 hPa 0,0 l/m 0,8 km/h (0 Bft) S-SW 200 0 min 0 W/m 18,4 C 20,8 C 3,2 km/h (1 Bft)
28.05.2018 22:36 20,7 C 86 % 1017,8 hPa 0,0 l/m 2,3 km/h (1 Bft) NW 320 0 min 0 W/m 18,3 C 20,7 C 4,8 km/h (1 Bft)
28.05.2018 22:39 20,7 C 87 % 1017,7 hPa 0,0 l/m 3,0 km/h (1 Bft) N-NW 336 0 min 0 W/m 18,5 C 20,7 C 8,0 km/h (2 Bft)
28.05.2018 22:42 20,6 C 87 % 1017,7 hPa 0,0 l/m 1,8 km/h (1 Bft) N-NW 329 0 min 0 W/m 18,4 C 20,6 C 4,8 km/h (1 Bft)
28.05.2018 22:45 20,6 C 87 % 1017,8 hPa 0,0 l/m 1,0 km/h (0 Bft) N-NW 328 0 min 0 W/m 18,4 C 20,6 C 3,2 km/h (1 Bft)
28.05.2018 22:48 20,5 C 87 % 1017,8 hPa 0,0 l/m 1,2 km/h (1 Bft) N-NW 328 0 min 0 W/m 18,3 C 20,5 C 3,2 km/h (1 Bft)
28.05.2018 22:51 20,5 C 87 % 1017,8 hPa 0,0 l/m 2,9 km/h (1 Bft) NO 34 0 min 0 W/m 18,3 C 20,5 C 8,0 km/h (2 Bft)
28.05.2018 22:54 20,5 C 87 % 1017,8 hPa 0,0 l/m 2,3 km/h (1 Bft) N-NO 30 0 min 0 W/m 18,3 C 20,5 C 6,4 km/h (2 Bft)
28.05.2018 22:57 20,4 C 88 % 1017,9 hPa 0,0 l/m 3,0 km/h (1 Bft) NO 35 0 min 0 W/m 18,3 C 20,4 C 6,4 km/h (2 Bft)
28.05.2018 23:00 20,4 C 88 % 1017,9 hPa 0,0 l/m 2,5 km/h (1 Bft) NW 315 0 min 0 W/m 18,3 C 20,4 C 6,4 km/h (2 Bft)
28.05.2018 23:03 20,3 C 88 % 1017,9 hPa 0,0 l/m 2,6 km/h (1 Bft) N-NW 345 0 min 0 W/m 18,2 C 20,3 C 6,4 km/h (2 Bft)
28.05.2018 23:06 20,3 C 88 % 1017,8 hPa 0,0 l/m 2,6 km/h (1 Bft) N-NW 344 0 min 0 W/m 18,2 C 20,3 C 6,4 km/h (2 Bft)
28.05.2018 23:09 20,3 C 88 % 1017,9 hPa 0,0 l/m 3,0 km/h (1 Bft) NO 44 0 min 0 W/m 18,2 C 20,3 C 6,4 km/h (2 Bft)
28.05.2018 23:12 20,3 C 88 % 1017,9 hPa 0,0 l/m 3,1 km/h (1 Bft) N-NW 331 0 min 0 W/m 18,2 C 20,3 C 4,8 km/h (1 Bft)
28.05.2018 23:15 20,3 C 88 % 1017,9 hPa 0,0 l/m 2,7 km/h (1 Bft) NO 36 0 min 0 W/m 18,2 C 20,3 C 4,8 km/h (1 Bft)
28.05.2018 23:18 20,3 C 88 % 1017,9 hPa 0,0 l/m 2,0 km/h (1 Bft) N-NO 30 0 min 0 W/m 18,2 C 20,3 C 6,4 km/h (2 Bft)
28.05.2018 23:21 20,3 C 88 % 1017,9 hPa 0,0 l/m 2,8 km/h (1 Bft) O-NO 73 0 min 0 W/m 18,2 C 20,3 C 6,4 km/h (2 Bft)
28.05.2018 23:24 20,3 C 88 % 1017,9 hPa 0,0 l/m 2,8 km/h (1 Bft) N-NO 14 0 min 0 W/m 18,2 C 20,3 C 6,4 km/h (2 Bft)
28.05.2018 23:27 20,3 C 88 % 1017,9 hPa 0,0 l/m 2,8 km/h (1 Bft) N 351 0 min 0 W/m 18,2 C 20,3 C 6,4 km/h (2 Bft)
28.05.2018 23:30 20,2 C 88 % 1018,0 hPa 0,0 l/m 2,0 km/h (1 Bft) N-NW 338 0 min 0 W/m 18,1 C 20,2 C 3,2 km/h (1 Bft)
28.05.2018 23:33 20,2 C 88 % 1017,9 hPa 0,0 l/m 3,2 km/h (1 Bft) N-NW 336 0 min 0 W/m 18,1 C 20,2 C 8,0 km/h (2 Bft)
28.05.2018 23:36 20,3 C 88 % 1017,9 hPa 0,0 l/m 3,3 km/h (1 Bft) NW 314 0 min 0 W/m 18,2 C 20,3 C 6,4 km/h (2 Bft)
28.05.2018 23:39 20,3 C 88 % 1017,7 hPa 0,0 l/m 3,8 km/h (1 Bft) NW 326 0 min 0 W/m 18,2 C 20,3 C 8,0 km/h (2 Bft)
28.05.2018 23:42 20,3 C 88 % 1017,7 hPa 0,0 l/m 4,6 km/h (1 Bft) NO 49 0 min 0 W/m 18,2 C 20,3 C 11,3 km/h (2 Bft)
28.05.2018 23:45 20,2 C 88 % 1018,0 hPa 0,0 l/m 2,0 km/h (1 Bft) N 355 0 min 0 W/m 18,1 C 20,2 C 6,4 km/h (2 Bft)
28.05.2018 23:48 20,1 C 88 % 1017,9 hPa 0,0 l/m 2,2 km/h (1 Bft) N 350 0 min 0 W/m 18,0 C 20,1 C 4,8 km/h (1 Bft)
28.05.2018 23:51 20,2 C 88 % 1017,9 hPa 0,0 l/m 3,6 km/h (1 Bft) N-NW 327 0 min 0 W/m 18,1 C 20,2 C 8,0 km/h (2 Bft)
28.05.2018 23:54 20,1 C 88 % 1017,9 hPa 0,0 l/m 2,6 km/h (1 Bft) N 360 0 min 0 W/m 18,0 C 20,1 C 8,0 km/h (2 Bft)
28.05.2018 23:57 20,1 C 88 % 1017,8 hPa 0,0 l/m 4,0 km/h (1 Bft) NW 323 0 min 0 W/m 18,0 C 20,1 C 8,0 km/h (2 Bft)
_ Min-Zeit 01:09 15:39 20:12 - 20:06 - - - - 04:54 02:06 20:06
Minimum _ 16,5 C 56 % 1016,8 hPa - 0,4 km/h (0 Bft) - - - - 13,7 C 15,2 C 1,6 km/h (1 Bft)
_ Max-Zeit 15:42 00:57 08:39 00:00 02:21 - - 08:24 13:27 19:48 15:33 02:21
Maximum _ 28,0 C 91 % 1019,1 hPa 0,0 l/m 10,7 km/h
O-NO (2 Bft)
- - 3 min 788 W/m 20,9 C 27,9 C 27,4 km/h
O-SO (5 Bft)
Durchschnitt _ 21,7 C 77 % 1018,1 hPa #0,0 l/m 4,4 km/h (1 Bft) O - #10:06 h 396 W/m 17,3 C 21,7 C 11,1 km/h (2 Bft)
2018 Cux-Wetter.de -Die Nutzung der Wetterdaten nur mit ausdrcklicher Genehmigung